ECMWFNIL_prec_precacc_003.txt.gz
Total_Precipitation_Accumulation
0.00 0.00 0.00 0.00 0.00 0.00 0.00 0.00 0.00 0.00 0.00 0.00 0.00 0.00 0.00 0.00 0.00 0.00 0.00 0.00 0.00 0.00 0.00 0.00 0.00 0.00 0.00 0.00 0.00 0.00 0.00 0.00 0.00 0.00 0.00 0.00 0.00 0.00 0.00 0.00 0.00 0.00
0.00 0.00 0.00 0.00 0.00 0.00 0.00 0.00 0.00 0.00 0.00 0.00 0.00 0.00 0.00 0.00 0.00 0.00 0.00 0.00 0.00 0.00 0.00 0.00 0.00 0.00 0.00 0.00 0.00 0.00 0.00 0.00 0.00 0.00 0.00 0.00 0.00 0.00 0.00 0.00 0.00 0.00
0.00 0.00 0.00 0.00 0.00 0.00 0.00 0.00 0.00 0.00 0.00 0.00 0.00 0.00 0.00 0.00 0.00 0.00 0.00 0.00 0.00 0.00 0.00 0.00 0.00 0.00 0.00 0.00 0.00 0.00 0.00 0.00 0.00 0.00 0.00 0.00 0.00 0.00 0.00 0.00 0.00 0.00
0.00 0.00 0.00 0.00 0.00 0.00 0.00 0.00 0.00 0.00 0.00 0.00 0.00 0.00 0.00 0.00 0.00 0.00 0.00 0.00 0.00 0.00 0.00 0.00 0.00 0.00 0.00 0.00 0.00 0.00 0.00 0.00 0.00 0.00 0.00 0.00 0.00 0.00 0.00 0.00 0.00 0.00
0.00 0.00 0.00 0.00 0.00 0.00 0.00 0.00 0.00 0.00 0.00 0.00 0.00 0.00 0.00 0.00 0.00 0.00 0.00 0.00 0.00 0.00 0.00 0.00 0.00 0.00 0.00 0.00 0.00 0.00 0.00 0.00 0.00 0.00 0.00 0.00 0.00 0.00 0.00 0.00 0.00 0.00
0.00 0.00 0.00 0.00 0.01 0.00 0.00 0.00 0.00 0.00 0.00 0.00 0.00 0.00 0.00 0.00 0.00 0.00 0.00 0.00 0.00 0.00 0.00 0.00 0.00 0.00 0.00 0.00 0.00 0.00 0.00 0.00 0.00 0.00 0.00 0.00 0.00 0.00 0.00 0.00 0.00 0.00
0.00 0.00 0.00 0.00 0.01 0.01 0.00 0.01 0.01 0.00 0.00 0.00 0.00 0.00 0.00 0.00 0.00 0.00 0.00 0.00 0.00 0.00 0.00 0.00 0.00 0.00 0.00 0.00 0.00 0.00 0.00 0.00 0.00 0.00 0.00 0.00 0.00 0.00 0.00 0.00 0.00 0.00
0.00 0.00 0.03 0.02 0.00 0.06 0.04 0.08 0.01 0.00 0.01 0.00 0.00 0.00 0.01 0.00 0.00 0.00 0.00 0.00 0.00 0.00 0.00 0.00 0.00 0.00 0.00 0.00 0.00 0.00 0.00 0.00 0.00 0.00 0.00 0.00 0.00 0.00 0.00 0.00 0.00 0.00
0.02 0.01 0.00 0.03 0.01 0.01 0.05 0.11 0.04 0.15 0.04 0.01 0.01 0.01 0.01 0.00 0.00 0.00 0.00 0.00 0.00 0.00 0.00 0.00 0.00 0.00 0.00 0.00 0.00 0.00 0.00 0.00 0.00 0.00 0.00 0.00 0.00 0.00 0.00 0.00 0.00 0.00
0.01 0.01 0.01 0.01 0.01 0.01 0.07 0.01 0.01 0.04 0.05 0.08 0.04 0.02 0.00 0.01 0.01 0.00 0.00 0.00 0.00 0.00 0.00 0.00 0.00 0.00 0.00 0.00 0.00 0.00 0.00 0.00 0.00 0.00 0.00 0.00 0.00 0.00 0.00 0.00 0.00 0.00
0.02 0.02 0.03 0.01 0.07 0.04 0.02 0.02 0.02 0.02 0.02 0.05 0.06 0.10 0.11 0.08 0.00 0.00 0.00 0.00 0.00 0.00 0.00 0.00 0.00 0.00 0.00 0.00 0.00 0.00 0.00 0.00 0.00 0.00 0.00 0.00 0.00 0.00 0.00 0.00 0.00 0.00
0.01 0.04 0.04 0.02 0.03 0.02 0.03 0.04 0.04 0.02 0.03 0.06 0.00 0.06 0.02 0.00 0.03 0.01 0.00 0.00 0.00 0.00 0.00 0.00 0.00 0.00 0.00 0.00 0.00 0.00 0.00 0.00 0.00 0.00 0.00 0.00 0.00 0.00 0.00 0.00 0.00 0.00
0.03 0.04 0.05 0.03 0.06 0.04 0.03 0.03 0.01 0.02 0.01 0.00 0.00 0.05 0.03 0.00 0.01 0.07 0.04 0.02 0.00 0.00 0.00 0.00 0.00 0.00 0.00 0.00 0.00 0.00 0.00 0.00 0.00 0.00 0.00 0.00 0.00 0.00 0.00 0.00 0.00 0.00
0.00 0.00 0.00 0.01 0.00 0.02 0.07 0.05 0.11 0.01 0.02 0.01 0.02 0.02 0.02 0.03 0.02 0.09 0.06 0.03 0.04 0.00 0.00 0.00 0.02 0.00 0.00 0.00 0.00 0.00 0.00 0.00 0.00 0.00 0.00 0.00 0.00 0.00 0.00 0.00 0.00 0.00
0.00 0.03 0.04 0.01 0.01 0.03 0.01 0.03 0.01 0.01 0.02 0.04 0.06 0.04 0.05 0.02 0.04 0.11 0.07 0.06 0.04 0.01 0.01 0.01 0.01 0.00 0.00 0.00 0.00 0.00 0.00 0.00 0.00 0.00 0.00 0.00 0.00 0.00 0.00 0.00 0.00 0.00
0.00 0.00 0.00 0.00 0.00 0.00 0.01 0.00 0.00 0.00 0.01 0.02 0.01 0.02 0.01 0.01 0.04 0.06 0.03 0.01 0.02 0.03 0.00 0.03 0.00 0.01 0.00 0.00 0.00 0.00 0.00 0.00 0.00 0.00 0.00 0.00 0.00 0.00 0.00 0.00 0.00 0.00
0.00 0.00 0.00 0.00 0.00 0.00 0.00 0.00 0.00 0.00 0.00 0.00 0.00 0.00 0.00 0.01 0.00 0.02 0.04 0.07 0.09 0.09 0.06 0.01 0.00 0.00 0.01 0.01 0.01 0.00 0.00 0.00 0.00 0.00 0.00 0.00 0.00 0.00 0.00 0.00 0.00 0.00
0.00 0.00 0.00 0.00 0.00 0.00 0.00 0.00 0.00 0.00 0.00 0.00 0.00 0.00 0.00 0.00 0.00 0.00 0.02 0.01 0.02 0.04 0.04 0.03 0.01 0.01 0.00 0.00 0.00 0.00 0.00 0.00 0.00 0.00 0.00 0.00 0.00 0.00 0.00 0.00 0.00 0.00
0.00 0.00 0.00 0.00 0.00 0.00 0.00 0.00 0.00 0.00 0.00 0.00 0.00 0.00 0.00 0.00 0.00 0.00 0.00 0.00 0.02 0.03 0.01 0.02 0.00 0.00 0.05 0.06 0.11 0.11 0.09 0.03 0.02 0.00 0.03 0.05 0.00 0.00 0.00 0.00 0.00 0.00
0.00 0.00 0.00 0.00 0.00 0.00 0.00 0.00 0.00 0.00 0.00 0.00 0.00 0.00 0.00 0.00 0.00 0.00 0.00 0.02 0.00 0.01 0.02 0.00 0.22 0.05 0.15 0.08 0.05 0.04 0.05 0.05 0.02 0.00 0.01 0.00 0.00 0.00 0.00 0.00 0.00 0.00
0.00 0.00 0.00 0.00 0.00 0.00 0.00 0.00 0.00 0.00 0.00 0.00 0.00 0.00 0.00 0.00 0.00 0.00 0.01 0.01 0.07 0.11 0.07 0.01 0.03 0.02 0.01 0.06 0.06 0.01 0.01 0.00 0.02 0.00 0.00 0.00 0.00 0.00 0.00 0.00 0.00 0.00
0.00 0.00 0.00 0.00 0.00 0.00 0.00 0.00 0.00 0.00 0.00 0.00 0.00 0.00 0.00 0.00 0.00 0.00 0.01 0.01 0.01 0.04 0.10 0.10 0.09 0.11 0.15 0.10 0.00 0.00 0.00 0.02 0.03 0.03 0.04 0.00 0.00 0.00 0.00 0.00 0.00 0.00
0.00 0.00 0.00 0.00 0.00 0.00 0.00 0.00 0.00 0.00 0.00 0.00 0.00 0.00 0.00 0.00 0.00 0.00 0.01 0.01 0.01 0.00 0.01 0.03 0.01 0.01 0.01 0.00 0.00 0.00 0.00 0.01 0.00 0.00 0.00 0.00 0.01 0.00 0.00 0.00 0.00 0.00
0.00 0.00 0.00 0.00 0.00 0.00 0.00 0.00 0.00 0.00 0.00 0.00 0.00 0.00 0.00 0.00 0.00 0.01 0.00 0.00 0.00 0.00 0.02 0.03 0.01 0.01 0.00 0.00 0.00 0.00 0.00 0.02 0.00 0.00 0.00 0.00 0.00 0.00 0.00 0.00 0.00 0.00
0.00 0.00 0.00 0.00 0.00 0.00 0.00 0.00 0.00 0.00 0.00 0.00 0.00 0.00 0.00 0.01 0.00 0.01 0.00 0.00 0.00 0.00 0.00 0.00 0.00 0.00 0.00 0.00 0.00 0.00 0.04 0.04 0.08 0.04 0.00 0.00 0.00 0.00 0.00 0.00 0.00 0.00
0.00 0.00 0.00 0.00 0.00 0.00 0.00 0.00 0.00 0.00 0.00 0.00 0.00 0.00 0.02 0.03 0.01 0.01 0.00 0.00 0.00 0.00 0.00 0.00 0.00 0.00 0.00 0.00 0.00 0.00 0.00 0.07 0.01 0.00 0.00 0.00 0.00 0.00 0.00 0.00 0.00 0.00

ECMWFNIL_prec_precacc_006.txt.gz
Total_Precipitation_Accumulation
0.00 0.00 0.00 0.00 0.00 0.00 0.00 0.00 0.00 0.00 0.00 0.00 0.00 0.00 0.00 0.00 0.00 0.00 0.00 0.00 0.00 0.00 0.00 0.00 0.00 0.00 0.00 0.00 0.00 0.00 0.00 0.00 0.00 0.00 0.00 0.00 0.00 0.00 0.00 0.00 0.00 0.00
0.00 0.00 0.00 0.00 0.00 0.00 0.00 0.00 0.00 0.00 0.00 0.00 0.00 0.00 0.00 0.00 0.00 0.00 0.00 0.00 0.00 0.00 0.00 0.00 0.00 0.00 0.00 0.00 0.00 0.00 0.00 0.00 0.00 0.00 0.00 0.00 0.00 0.00 0.00 0.00 0.00 0.00
0.00 0.00 0.00 0.00 0.00 0.00 0.00 0.00 0.00 0.00 0.00 0.00 0.00 0.00 0.00 0.00 0.00 0.00 0.00 0.00 0.00 0.00 0.00 0.00 0.00 0.00 0.00 0.00 0.00 0.00 0.00 0.00 0.00 0.00 0.00 0.00 0.00 0.00 0.00 0.00 0.00 0.00
0.00 0.00 0.00 0.00 0.00 0.00 0.00 0.00 0.00 0.00 0.00 0.00 0.00 0.00 0.00 0.00 0.00 0.00 0.00 0.00 0.00 0.00 0.00 0.00 0.00 0.00 0.00 0.00 0.00 0.00 0.00 0.00 0.00 0.00 0.00 0.00 0.00 0.00 0.00 0.00 0.00 0.00
0.00 0.00 0.00 0.00 0.00 0.00 0.00 0.00 0.00 0.00 0.00 0.00 0.00 0.00 0.00 0.00 0.00 0.00 0.00 0.00 0.00 0.00 0.00 0.00 0.00 0.00 0.00 0.00 0.00 0.00 0.00 0.00 0.00 0.00 0.00 0.00 0.00 0.00 0.00 0.00 0.00 0.00
0.00 0.00 0.00 0.02 0.01 0.01 0.01 0.00 0.00 0.00 0.00 0.00 0.00 0.00 0.00 0.00 0.00 0.00 0.00 0.00 0.00 0.00 0.00 0.00 0.00 0.00 0.00 0.00 0.00 0.00 0.00 0.00 0.00 0.00 0.00 0.00 0.00 0.00 0.00 0.00 0.00 0.00
0.00 0.01 0.00 0.01 0.01 0.01 0.00 0.03 0.03 0.00 0.00 0.00 0.00 0.00 0.00 0.00 0.00 0.00 0.00 0.00 0.00 0.00 0.00 0.00 0.00 0.00 0.00 0.00 0.00 0.00 0.00 0.00 0.00 0.00 0.00 0.00 0.00 0.00 0.00 0.00 0.00 0.00
0.00 0.00 0.03 0.02 0.00 0.06 0.04 0.08 0.02 0.00 0.01 0.00 0.00 0.00 0.01 0.00 0.00 0.00 0.00 0.00 0.00 0.00 0.00 0.00 0.00 0.00 0.00 0.00 0.00 0.00 0.00 0.00 0.00 0.00 0.00 0.00 0.00 0.00 0.00 0.00 0.00 0.00
0.02 0.01 0.00 0.03 0.01 0.01 0.07 0.11 0.04 0.15 0.04 0.01 0.01 0.01 0.01 0.00 0.01 0.01 0.01 0.00 0.00 0.00 0.00 0.00 0.00 0.00 0.00 0.00 0.00 0.00 0.00 0.00 0.00 0.00 0.00 0.00 0.00 0.00 0.00 0.00 0.00 0.00
0.01 0.01 0.01 0.01 0.01 0.01 0.07 0.01 0.01 0.04 0.05 0.08 0.04 0.02 0.00 0.01 0.01 0.00 0.00 0.00 0.00 0.00 0.00 0.00 0.00 0.00 0.00 0.00 0.00 0.00 0.00 0.00 0.00 0.00 0.00 0.00 0.00 0.00 0.00 0.00 0.00 0.00
0.04 0.04 0.04 0.02 0.07 0.05 0.03 0.02 0.02 0.10 0.20 0.17 0.06 0.10 0.11 0.08 0.00 0.00 0.00 0.00 0.01 0.00 0.00 0.00 0.00 0.00 0.00 0.00 0.00 0.00 0.00 0.00 0.00 0.00 0.00 0.00 0.00 0.00 0.00 0.00 0.00 0.00
0.01 0.04 0.04 0.02 0.05 0.03 0.09 0.38 0.27 0.23 0.18 0.14 0.04 0.14 0.08 0.01 0.03 0.01 0.00 0.00 0.02 0.00 0.01 0.00 0.00 0.00 0.00 0.00 0.00 0.00 0.00 0.00 0.00 0.00 0.00 0.00 0.00 0.00 0.00 0.00 0.00 0.00
0.06 0.05 0.06 0.10 0.27 0.28 0.15 0.15 0.24 0.39 0.37 0.21 0.10 0.09 0.11 0.10 0.05 0.08 0.04 0.02 0.00 0.01 0.00 0.00 0.00 0.00 0.00 0.00 0.00 0.00 0.00 0.00 0.00 0.00 0.00 0.00 0.00 0.00 0.00 0.00 0.00 0.00
0.00 0.00 0.01 0.01 0.00 0.02 0.15 0.25 0.33 0.26 0.24 0.23 0.25 0.14 0.11 0.09 0.10 0.11 0.11 0.04 0.05 0.05 0.02 0.01 0.03 0.01 0.01 0.00 0.00 0.00 0.00 0.00 0.00 0.00 0.00 0.00 0.00 0.00 0.00 0.00 0.00 0.00
0.00 0.03 0.04 0.01 0.01 0.03 0.01 0.03 0.02 0.01 0.02 0.06 0.07 0.08 0.18 0.18 0.25 0.33 0.09 0.06 0.05 0.02 0.01 0.03 0.03 0.01 0.02 0.00 0.00 0.00 0.01 0.00 0.01 0.03 0.00 0.00 0.00 0.00 0.00 0.00 0.00 0.00
0.00 0.00 0.00 0.00 0.01 0.00 0.02 0.01 0.01 0.01 0.04 0.04 0.05 0.08 0.03 0.03 0.04 0.06 0.05 0.02 0.02 0.04 0.04 0.12 0.48 0.07 0.01 0.00 0.00 0.01 0.01 0.05 0.02 0.02 0.02 0.01 0.01 0.00 0.00 0.00 0.00 0.00
0.00 0.00 0.00 0.00 0.00 0.00 0.00 0.01 0.00 0.00 0.00 0.00 0.00 0.00 0.00 0.01 0.00 0.02 0.05 0.07 0.09 0.09 0.07 0.03 0.00 0.00 0.01 0.01 0.01 0.00 0.00 0.00 0.00 0.09 0.03 0.00 0.00 0.01 0.00 0.00 0.00 0.00
0.00 0.00 0.00 0.00 0.00 0.00 0.00 0.00 0.00 0.00 0.00 0.00 0.00 0.00 0.00 0.00 0.00 0.00 0.02 0.01 0.02 0.04 0.05 0.04 0.03 0.01 0.00 0.00 0.00 0.00 0.01 0.02 0.02 0.00 0.01 0.01 0.00 0.00 0.00 0.00 0.00 0.00
0.00 0.00 0.00 0.00 0.00 0.00 0.00 0.00 0.00 0.00 0.00 0.00 0.00 0.00 0.00 0.00 0.00 0.00 0.00 0.00 0.03 0.03 0.02 0.03 0.00 0.00 0.05 0.06 0.11 0.11 0.09 0.03 0.02 0.06 0.04 0.06 0.01 0.00 0.02 0.01 0.00 0.00
0.00 0.00 0.00 0.00 0.00 0.00 0.00 0.00 0.00 0.00 0.00 0.00 0.00 0.00 0.00 0.00 0.00 0.00 0.00 0.02 0.00 0.01 0.03 0.00 0.22 0.05 0.15 0.08 0.05 0.04 0.05 0.06 0.03 0.00 0.01 0.02 0.00 0.00 0.00 0.00 0.00 0.00
0.00 0.00 0.00 0.00 0.00 0.00 0.00 0.00 0.00 0.00 0.00 0.00 0.00 0.00 0.00 0.00 0.00 0.00 0.01 0.01 0.07 0.13 0.08 0.01 0.04 0.02 0.01 0.06 0.06 0.01 0.01 0.00 0.02 0.02 0.00 0.00 0.00 0.00 0.00 0.00 0.00 0.00
0.00 0.00 0.00 0.00 0.00 0.00 0.00 0.00 0.00 0.00 0.00 0.00 0.00 0.00 0.00 0.00 0.00 0.00 0.01 0.01 0.02 0.05 0.10 0.10 0.09 0.11 0.15 0.10 0.00 0.00 0.09 0.02 0.03 0.03 0.11 0.01 0.06 0.08 0.01 0.05 0.02 0.02
0.00 0.00 0.00 0.00 0.00 0.00 0.00 0.00 0.00 0.00 0.00 0.00 0.00 0.00 0.00 0.00 0.00 0.00 0.01 0.02 0.01 0.00 0.01 0.03 0.01 0.01 0.01 0.00 0.00 0.00 0.04 0.02 0.01 0.02 0.01 0.00 0.01 0.00 0.00 0.00 0.00 0.00
0.00 0.00 0.00 0.00 0.00 0.00 0.00 0.00 0.00 0.00 0.00 0.00 0.00 0.00 0.00 0.00 0.00 0.01 0.00 0.01 0.01 0.00 0.02 0.03 0.01 0.01 0.00 0.00 0.00 0.00 0.00 0.03 0.02 0.01 0.00 0.00 0.00 0.01 0.00 0.01 0.00 0.00
0.00 0.00 0.00 0.00 0.00 0.00 0.00 0.00 0.00 0.00 0.00 0.00 0.00 0.00 0.00 0.01 0.00 0.01 0.01 0.00 0.00 0.01 0.00 0.00 0.00 0.00 0.00 0.00 0.00 0.00 0.04 0.05 0.09 0.05 0.00 0.00 0.00 0.00 0.00 0.00 0.00 0.00
0.00 0.00 0.00 0.00 0.00 0.00 0.00 0.00 0.00 0.00 0.00 0.00 0.00 0.00 0.02 0.03 0.01 0.01 0.01 0.00 0.00 0.00 0.00 0.00 0.00 0.00 0.00 0.00 0.00 0.00 0.00 0.08 0.01 0.00 0.00 0.00 0.00 0.00 0.00 0.00 0.00 0.00

ECMWFNIL_prec_precacc_009.txt.gz
Total_Precipitation_Accumulation
0.00 0.00 0.00 0.00 0.00 0.00 0.00 0.00 0.00 0.00 0.00 0.00 0.00 0.00 0.00 0.00 0.00 0.00 0.00 0.00 0.00 0.00 0.00 0.00 0.00 0.00 0.00 0.00 0.00 0.00 0.00 0.00 0.00 0.00 0.00 0.00 0.00 0.00 0.00 0.00 0.00 0.00
0.00 0.00 0.00 0.00 0.00 0.00 0.00 0.00 0.00 0.00 0.00 0.00 0.00 0.00 0.00 0.00 0.00 0.00 0.00 0.00 0.00 0.00 0.00 0.00 0.00 0.00 0.00 0.00 0.00 0.00 0.00 0.00 0.00 0.00 0.00 0.00 0.00 0.00 0.00 0.00 0.00 0.00
0.00 0.00 0.00 0.00 0.00 0.00 0.00 0.00 0.00 0.00 0.00 0.00 0.00 0.00 0.00 0.00 0.00 0.00 0.00 0.00 0.00 0.00 0.00 0.00 0.00 0.00 0.00 0.00 0.00 0.00 0.00 0.00 0.00 0.00 0.00 0.00 0.00 0.00 0.00 0.00 0.00 0.00
0.00 0.00 0.00 0.00 0.00 0.00 0.00 0.00 0.00 0.00 0.00 0.00 0.00 0.00 0.00 0.00 0.00 0.00 0.00 0.00 0.00 0.00 0.00 0.00 0.00 0.00 0.00 0.00 0.00 0.00 0.00 0.00 0.00 0.00 0.00 0.00 0.00 0.00 0.00 0.00 0.00 0.00
0.00 0.00 0.00 0.00 0.00 0.00 0.00 0.00 0.00 0.00 0.00 0.00 0.00 0.00 0.00 0.00 0.00 0.00 0.00 0.00 0.00 0.00 0.00 0.00 0.00 0.00 0.00 0.00 0.00 0.00 0.00 0.00 0.00 0.00 0.00 0.00 0.00 0.00 0.00 0.00 0.00 0.00
0.00 0.00 0.00 0.02 0.01 0.01 0.01 0.00 0.00 0.00 0.00 0.00 0.00 0.00 0.00 0.00 0.00 0.00 0.00 0.00 0.00 0.00 0.00 0.00 0.00 0.00 0.00 0.00 0.00 0.00 0.00 0.00 0.00 0.00 0.00 0.00 0.00 0.00 0.00 0.00 0.00 0.00
0.00 0.01 0.00 0.01 0.01 0.01 0.00 0.03 0.03 0.00 0.00 0.00 0.00 0.00 0.00 0.00 0.00 0.00 0.00 0.00 0.00 0.00 0.00 0.00 0.00 0.00 0.00 0.00 0.00 0.00 0.00 0.00 0.00 0.00 0.00 0.00 0.00 0.00 0.00 0.00 0.00 0.00
0.00 0.00 0.03 0.02 0.00 0.06 0.04 0.08 0.02 0.00 0.01 0.00 0.00 0.00 0.01 0.00 0.00 0.00 0.00 0.00 0.00 0.00 0.00 0.00 0.00 0.00 0.00 0.00 0.00 0.00 0.00 0.00 0.00 0.00 0.00 0.00 0.00 0.00 0.00 0.00 0.00 0.00
0.02 0.01 0.00 0.03 0.01 0.01 0.07 0.11 0.04 0.15 0.04 0.01 0.01 0.01 0.01 0.00 0.01 0.01 0.01 0.00 0.00 0.00 0.00 0.00 0.00 0.00 0.00 0.00 0.00 0.00 0.00 0.00 0.00 0.00 0.00 0.00 0.00 0.00 0.00 0.00 0.00 0.00
0.01 0.01 0.01 0.01 0.01 0.01 0.07 0.01 0.01 0.04 0.06 0.15 0.04 0.09 0.01 0.01 0.01 0.00 0.00 0.00 0.00 0.00 0.00 0.00 0.00 0.00 0.00 0.00 0.00 0.00 0.00 0.00 0.00 0.00 0.00 0.00 0.00 0.00 0.00 0.00 0.00 0.00
0.04 0.05 0.04 0.02 0.07 0.05 0.03 0.02 0.02 0.10 0.27 0.29 0.10 0.13 0.14 0.10 0.01 0.00 0.00 0.00 0.01 0.00 0.00 0.00 0.00 0.00 0.00 0.00 0.00 0.00 0.00 0.00 0.00 0.00 0.00 0.00 0.00 0.00 0.00 0.00 0.00 0.00
0.02 0.06 0.06 0.03 0.05 0.03 0.09 0.38 0.27 0.23 0.19 0.15 0.06 0.15 0.09 0.02 0.04 0.01 0.01 0.00 0.02 0.00 0.01 0.00 0.00 0.00 0.00 0.00 0.00 0.00 0.00 0.00 0.00 0.00 0.00 0.00 0.00 0.00 0.00 0.00 0.00 0.00
0.06 0.16 0.20 0.15 0.28 0.28 0.20 0.18 0.25 0.40 0.39 0.25 0.11 0.11 0.13 0.13 0.07 0.09 0.05 0.04 0.01 0.01 0.00 0.00 0.00 0.00 0.00 0.00 0.00 0.00 0.00 0.00 0.00 0.00 0.00 0.00 0.00 0.00 0.00 0.00 0.00 0.00
0.23 0.29 0.05 0.05 0.06 0.05 0.16 0.26 0.33 0.27 0.24 0.24 0.27 0.18 0.16 0.18 0.25 0.30 0.23 0.15 0.11 0.09 0.04 0.02 0.03 0.01 0.01 0.00 0.00 0.00 0.00 0.00 0.00 0.00 0.00 0.00 0.01 0.00 0.00 0.00 0.00 0.00
0.01 0.03 0.05 0.01 0.01 0.03 0.01 0.04 0.02 0.01 0.02 0.06 0.07 0.09 0.19 0.20 0.27 0.36 0.14 0.11 0.08 0.05 0.04 0.04 0.03 0.01 0.02 0.00 0.00 0.00 0.01 0.00 0.01 0.03 0.00 0.00 0.01 0.00 0.00 0.00 0.00 0.00
0.00 0.00 0.00 0.00 0.01 0.00 0.02 0.01 0.01 0.01 0.04 0.04 0.05 0.08 0.03 0.03 0.04 0.06 0.05 0.03 0.02 0.04 0.04 0.13 0.48 0.07 0.01 0.00 0.00 0.01 0.01 0.05 0.02 0.02 0.02 0.01 0.01 0.00 0.01 0.00 0.00 0.00
0.00 0.00 0.00 0.00 0.00 0.00 0.00 0.01 0.01 0.00 0.01 0.00 0.00 0.00 0.00 0.01 0.10 0.12 0.05 0.07 0.09 0.10 0.07 0.03 0.00 0.00 0.01 0.01 0.01 0.00 0.00 0.00 0.00 0.09 0.03 0.00 0.00 0.01 0.00 0.00 0.00 0.00
0.00 0.00 0.00 0.00 0.00 0.00 0.00 0.01 0.02 0.01 0.01 0.01 0.00 0.01 0.00 0.00 0.01 0.01 0.02 0.01 0.02 0.04 0.05 0.04 0.03 0.01 0.00 0.00 0.00 0.00 0.01 0.02 0.02 0.00 0.01 0.01 0.00 0.00 0.00 0.00 0.00 0.00
0.00 0.00 0.00 0.00 0.00 0.00 0.00 0.00 0.00 0.00 0.00 0.01 0.01 0.00 0.00 0.00 0.00 0.00 0.00 0.00 0.03 0.03 0.02 0.03 0.00 0.00 0.05 0.06 0.11 0.11 0.09 0.03 0.02 0.06 0.04 0.06 0.01 0.00 0.02 0.01 0.00 0.00
0.00 0.00 0.00 0.00 0.00 0.00 0.00 0.00 0.00 0.00 0.00 0.00 0.00 0.00 0.00 0.00 0.00 0.00 0.00 0.02 0.00 0.01 0.03 0.00 0.22 0.05 0.15 0.08 0.05 0.04 0.05 0.07 0.04 0.00 0.01 0.02 0.01 0.00 0.01 0.00 0.00 0.00
0.00 0.00 0.00 0.00 0.00 0.00 0.00 0.00 0.00 0.00 0.00 0.00 0.00 0.00 0.00 0.00 0.00 0.00 0.01 0.01 0.07 0.13 0.08 0.01 0.04 0.02 0.01 0.06 0.06 0.02 0.02 0.01 0.04 0.04 0.00 0.00 0.02 0.01 0.00 0.00 0.00 0.01
0.00 0.00 0.00 0.00 0.00 0.00 0.00 0.00 0.00 0.00 0.00 0.00 0.00 0.00 0.00 0.00 0.00 0.00 0.01 0.01 0.02 0.05 0.10 0.10 0.09 0.11 0.15 0.10 0.00 0.00 0.19 0.03 0.03 0.03 0.12 0.01 0.12 0.10 0.02 0.05 0.02 0.02
0.00 0.00 0.00 0.00 0.00 0.00 0.00 0.00 0.00 0.00 0.00 0.00 0.00 0.00 0.00 0.00 0.00 0.00 0.01 0.02 0.01 0.00 0.01 0.03 0.01 0.01 0.01 0.00 0.00 0.00 0.12 0.03 0.01 0.05 0.01 0.00 0.02 0.02 0.00 0.00 0.00 0.00
0.00 0.00 0.00 0.00 0.00 0.00 0.00 0.00 0.00 0.00 0.00 0.00 0.00 0.00 0.00 0.00 0.00 0.01 0.00 0.01 0.01 0.00 0.02 0.03 0.01 0.01 0.00 0.00 0.00 0.00 0.01 0.03 0.02 0.01 0.00 0.00 0.00 0.01 0.00 0.01 0.00 0.00
0.00 0.00 0.00 0.00 0.00 0.00 0.00 0.00 0.00 0.00 0.00 0.00 0.00 0.00 0.00 0.01 0.00 0.01 0.01 0.00 0.00 0.01 0.00 0.00 0.00 0.00 0.00 0.00 0.00 0.00 0.04 0.05 0.09 0.05 0.00 0.00 0.00 0.00 0.00 0.00 0.00 0.00
0.00 0.00 0.00 0.00 0.00 0.00 0.00 0.00 0.00 0.00 0.00 0.00 0.00 0.00 0.02 0.03 0.01 0.01 0.01 0.00 0.00 0.00 0.00 0.00 0.00 0.00 0.00 0.00 0.00 0.00 0.00 0.08 0.01 0.00 0.00 0.00 0.00 0.00 0.00 0.00 0.00 0.00

ECMWFNIL_prec_precacc_015.txt.gz
Total_Precipitation_Accumulation
0.00 0.00 0.00 0.00 0.00 0.00 0.00 0.00 0.00 0.00 0.00 0.00 0.00 0.00 0.00 0.00 0.00 0.00 0.00 0.00 0.00 0.00 0.00 0.00 0.00 0.00 0.00 0.00 0.00 0.00 0.00 0.00 0.00 0.00 0.00 0.00 0.00 0.00 0.00 0.00 0.00 0.00
0.01 0.01 0.01 0.00 0.00 0.00 0.00 0.00 0.00 0.00 0.00 0.00 0.00 0.00 0.00 0.00 0.00 0.00 0.00 0.00 0.00 0.00 0.00 0.00 0.00 0.00 0.00 0.00 0.00 0.00 0.00 0.00 0.00 0.00 0.00 0.00 0.00 0.00 0.00 0.00 0.00 0.00
0.00 0.00 0.00 0.02 0.03 0.00 0.00 0.00 0.00 0.00 0.00 0.00 0.00 0.00 0.00 0.00 0.00 0.00 0.00 0.00 0.00 0.00 0.00 0.00 0.00 0.00 0.00 0.00 0.00 0.00 0.00 0.00 0.00 0.00 0.00 0.00 0.00 0.00 0.00 0.00 0.00 0.00
0.00 0.00 0.01 0.03 0.00 0.00 0.00 0.00 0.00 0.00 0.00 0.00 0.00 0.00 0.00 0.00 0.00 0.00 0.00 0.00 0.00 0.00 0.00 0.00 0.00 0.00 0.00 0.00 0.00 0.00 0.00 0.00 0.00 0.00 0.00 0.00 0.00 0.00 0.00 0.00 0.00 0.00
0.01 0.01 0.04 0.04 0.03 0.00 0.00 0.00 0.00 0.00 0.00 0.00 0.00 0.00 0.00 0.00 0.00 0.00 0.00 0.00 0.00 0.00 0.00 0.00 0.00 0.00 0.00 0.00 0.00 0.00 0.00 0.00 0.00 0.00 0.00 0.00 0.00 0.00 0.00 0.00 0.00 0.00
0.01 0.04 0.08 0.06 0.01 0.01 0.01 0.00 0.00 0.00 0.00 0.00 0.00 0.00 0.00 0.00 0.00 0.00 0.00 0.00 0.00 0.00 0.00 0.00 0.00 0.00 0.00 0.00 0.00 0.00 0.00 0.00 0.00 0.00 0.00 0.00 0.00 0.00 0.00 0.00 0.00 0.00
0.03 0.03 0.03 0.02 0.01 0.01 0.00 0.03 0.03 0.00 0.00 0.00 0.00 0.00 0.00 0.00 0.00 0.00 0.00 0.00 0.00 0.00 0.00 0.00 0.00 0.00 0.00 0.00 0.00 0.00 0.00 0.00 0.00 0.00 0.00 0.00 0.00 0.00 0.00 0.00 0.00 0.00
0.00 0.02 0.05 0.03 0.00 0.06 0.04 0.08 0.02 0.00 0.01 0.00 0.00 0.00 0.01 0.00 0.00 0.00 0.00 0.00 0.00 0.00 0.00 0.00 0.00 0.00 0.00 0.00 0.00 0.00 0.00 0.00 0.00 0.00 0.00 0.00 0.00 0.00 0.00 0.00 0.00 0.00
0.03 0.01 0.00 0.03 0.01 0.01 0.07 0.11 0.04 0.15 0.04 0.01 0.01 0.01 0.01 0.00 0.01 0.01 0.01 0.00 0.00 0.00 0.00 0.00 0.00 0.00 0.00 0.00 0.00 0.00 0.00 0.00 0.00 0.00 0.00 0.00 0.00 0.00 0.00 0.00 0.00 0.00
0.21 0.09 0.04 0.03 0.04 0.04 0.07 0.01 0.01 0.04 0.06 0.15 0.04 0.09 0.01 0.01 0.01 0.00 0.00 0.00 0.00 0.00 0.00 0.00 0.00 0.00 0.00 0.00 0.00 0.00 0.00 0.00 0.00 0.00 0.00 0.00 0.00 0.00 0.00 0.00 0.00 0.00
0.30 0.39 0.22 0.18 0.18 0.24 0.07 0.03 0.02 0.10 0.28 0.29 0.10 0.13 0.14 0.10 0.01 0.00 0.00 0.00 0.01 0.00 0.00 0.00 0.00 0.00 0.00 0.00 0.00 0.00 0.00 0.00 0.00 0.00 0.00 0.00 0.00 0.00 0.00 0.00 0.00 0.00
0.48 0.54 0.37 0.28 0.42 0.42 0.39 0.57 0.42 0.32 0.27 0.16 0.07 0.16 0.13 0.09 0.07 0.12 0.04 0.09 0.15 0.01 0.01 0.00 0.00 0.00 0.00 0.00 0.00 0.00 0.00 0.00 0.00 0.00 0.00 0.00 0.00 0.00 0.00 0.00 0.00 0.00
0.13 0.21 0.44 0.95 1.10 1.00 0.77 0.62 0.68 0.76 0.69 0.53 0.27 0.24 0.24 0.29 0.29 0.32 0.22 0.12 0.03 0.01 0.02 0.00 0.00 0.00 0.00 0.00 0.00 0.00 0.00 0.00 0.00 0.00 0.00 0.00 0.00 0.00 0.00 0.00 0.00 0.00
0.28 0.73 0.70 0.59 0.51 0.62 0.83 0.77 0.91 0.77 0.70 0.62 0.67 0.43 0.42 0.37 0.35 0.34 0.28 0.17 0.13 0.10 0.14 0.09 0.06 0.01 0.01 0.00 0.00 0.00 0.00 0.00 0.00 0.00 0.01 0.00 0.01 0.00 0.00 0.00 0.00 0.00
0.62 0.55 0.33 0.29 0.27 0.46 0.82 0.94 0.71 0.49 0.45 0.45 0.38 0.32 0.34 0.31 0.36 0.41 0.15 0.13 0.12 0.11 0.11 0.22 0.10 0.04 0.02 0.01 0.00 0.00 0.01 0.01 0.01 0.05 0.01 0.02 0.03 0.00 0.00 0.00 0.00 0.00
0.15 0.11 0.29 0.12 0.34 0.23 0.11 0.20 0.21 0.38 0.28 0.24 0.22 0.22 0.10 0.10 0.10 0.13 0.18 0.24 0.16 0.12 0.12 0.17 0.56 0.11 0.01 0.01 0.00 0.03 0.05 0.06 0.03 0.02 0.02 0.01 0.01 0.02 0.03 0.04 0.01 0.01
0.01 0.00 0.00 0.01 0.02 0.00 0.01 0.03 0.01 0.01 0.02 0.02 0.02 0.04 0.09 0.11 0.17 0.21 0.09 0.37 0.15 0.12 0.10 0.04 0.01 0.00 0.01 0.01 0.01 0.00 0.00 0.00 0.00 0.09 0.03 0.01 0.00 0.01 0.01 0.01 0.00 0.00
0.00 0.00 0.00 0.00 0.01 0.00 0.00 0.01 0.02 0.01 0.10 0.20 0.05 0.18 0.58 0.41 0.03 0.07 0.17 0.09 0.10 0.13 0.10 0.04 0.03 0.01 0.00 0.00 0.00 0.00 0.01 0.02 0.02 0.00 0.01 0.01 0.00 0.00 0.00 0.00 0.00 0.00
0.00 0.00 0.00 0.00 0.00 0.00 0.00 0.00 0.00 0.00 0.00 0.01 0.01 0.05 0.09 0.08 0.18 0.09 0.02 0.00 0.03 0.03 0.02 0.03 0.00 0.00 0.05 0.06 0.11 0.11 0.09 0.05 0.03 0.06 0.04 0.06 0.01 0.00 0.02 0.01 0.00 0.00
0.00 0.00 0.00 0.00 0.00 0.00 0.00 0.00 0.00 0.00 0.00 0.00 0.00 0.00 0.00 0.00 0.00 0.00 0.00 0.02 0.01 0.02 0.03 0.00 0.22 0.05 0.15 0.08 0.05 0.04 0.05 0.07 0.04 0.00 0.01 0.02 0.01 0.01 0.02 0.00 0.00 0.00
0.00 0.00 0.00 0.00 0.00 0.00 0.00 0.00 0.00 0.00 0.00 0.00 0.00 0.00 0.00 0.00 0.00 0.00 0.01 0.01 0.07 0.13 0.08 0.01 0.04 0.02 0.01 0.06 0.06 0.02 0.02 0.01 0.05 0.05 0.02 0.00 0.03 0.02 0.02 0.00 0.00 0.01
0.00 0.00 0.00 0.00 0.00 0.00 0.00 0.00 0.00 0.00 0.00 0.00 0.00 0.00 0.00 0.00 0.00 0.00 0.01 0.01 0.02 0.05 0.10 0.10 0.09 0.11 0.15 0.10 0.00 0.00 0.19 0.03 0.03 0.03 0.12 0.01 0.12 0.11 0.06 0.06 0.03 0.04
0.00 0.00 0.00 0.00 0.00 0.00 0.00 0.00 0.00 0.00 0.00 0.00 0.00 0.00 0.00 0.00 0.00 0.00 0.01 0.02 0.01 0.00 0.01 0.03 0.01 0.01 0.01 0.00 0.00 0.00 0.12 0.03 0.01 0.05 0.01 0.00 0.05 0.02 0.00 0.00 0.00 0.00
0.00 0.00 0.00 0.00 0.00 0.00 0.00 0.00 0.00 0.00 0.00 0.00 0.00 0.00 0.00 0.00 0.00 0.01 0.00 0.01 0.01 0.00 0.02 0.03 0.01 0.01 0.00 0.00 0.00 0.00 0.01 0.03 0.02 0.01 0.00 0.00 0.00 0.01 0.00 0.01 0.00 0.00
0.00 0.00 0.00 0.00 0.00 0.00 0.00 0.00 0.00 0.00 0.00 0.00 0.00 0.00 0.00 0.01 0.00 0.01 0.01 0.00 0.00 0.01 0.00 0.00 0.00 0.00 0.00 0.00 0.00 0.00 0.04 0.05 0.09 0.05 0.00 0.00 0.00 0.00 0.00 0.00 0.00 0.00
0.00 0.00 0.00 0.00 0.00 0.00 0.00 0.00 0.00 0.00 0.00 0.00 0.00 0.00 0.02 0.03 0.01 0.01 0.01 0.00 0.00 0.00 0.00 0.00 0.00 0.00 0.00 0.00 0.00 0.00 0.00 0.08 0.01 0.00 0.00 0.00 0.00 0.00 0.00 0.00 0.00 0.00

ECMWFNIL_prec_precacc_021.txt.gz
Total_Precipitation_Accumulation
0.04 0.01 0.00 0.00 0.00 0.01 0.03 0.01 0.00 0.00 0.00 0.00 0.00 0.00 0.00 0.00 0.00 0.00 0.00 0.00 0.00 0.00 0.00 0.00 0.00 0.00 0.00 0.00 0.00 0.00 0.00 0.00 0.00 0.00 0.00 0.00 0.00 0.00 0.00 0.00 0.00 0.00
0.04 0.03 0.02 0.01 0.01 0.00 0.00 0.00 0.00 0.00 0.00 0.00 0.00 0.00 0.00 0.00 0.00 0.00 0.00 0.00 0.00 0.00 0.00 0.00 0.00 0.00 0.00 0.00 0.00 0.00 0.00 0.00 0.00 0.00 0.00 0.00 0.00 0.00 0.00 0.00 0.00 0.00
0.03 0.01 0.02 0.02 0.03 0.00 0.01 0.02 0.00 0.00 0.00 0.00 0.00 0.00 0.00 0.00 0.00 0.00 0.00 0.00 0.00 0.00 0.00 0.00 0.00 0.00 0.00 0.00 0.00 0.00 0.00 0.00 0.00 0.00 0.00 0.00 0.00 0.00 0.00 0.00 0.00 0.00
0.09 0.04 0.02 0.03 0.00 0.02 0.03 0.00 0.02 0.02 0.00 0.00 0.00 0.00 0.00 0.00 0.00 0.00 0.00 0.00 0.00 0.00 0.00 0.00 0.00 0.00 0.00 0.00 0.00 0.00 0.00 0.00 0.00 0.00 0.00 0.00 0.00 0.00 0.00 0.00 0.00 0.00
0.11 0.01 0.04 0.04 0.04 0.04 0.04 0.05 0.04 0.01 0.00 0.00 0.00 0.00 0.00 0.00 0.00 0.00 0.00 0.00 0.00 0.00 0.00 0.00 0.00 0.00 0.00 0.00 0.00 0.00 0.00 0.00 0.00 0.00 0.00 0.00 0.00 0.00 0.00 0.00 0.00 0.00
0.07 0.05 0.09 0.06 0.02 0.04 0.06 0.01 0.00 0.00 0.00 0.00 0.00 0.00 0.00 0.00 0.00 0.00 0.00 0.00 0.00 0.00 0.00 0.00 0.00 0.00 0.00 0.00 0.00 0.00 0.00 0.00 0.00 0.00 0.00 0.00 0.00 0.00 0.00 0.00 0.00 0.00
0.06 0.06 0.05 0.02 0.04 0.04 0.01 0.03 0.03 0.00 0.00 0.00 0.00 0.00 0.00 0.00 0.00 0.00 0.00 0.00 0.00 0.00 0.00 0.00 0.00 0.00 0.00 0.00 0.00 0.00 0.00 0.00 0.00 0.00 0.00 0.00 0.00 0.00 0.00 0.00 0.00 0.00
0.01 0.03 0.05 0.03 0.00 0.06 0.04 0.08 0.02 0.00 0.01 0.00 0.00 0.00 0.01 0.00 0.00 0.00 0.00 0.00 0.00 0.00 0.00 0.00 0.00 0.00 0.00 0.00 0.00 0.00 0.00 0.00 0.00 0.00 0.00 0.00 0.00 0.00 0.00 0.00 0.00 0.00
0.03 0.01 0.00 0.03 0.01 0.01 0.07 0.11 0.04 0.15 0.04 0.01 0.01 0.01 0.01 0.00 0.01 0.01 0.01 0.00 0.00 0.00 0.00 0.00 0.00 0.00 0.00 0.00 0.00 0.00 0.00 0.00 0.00 0.00 0.00 0.00 0.00 0.00 0.00 0.00 0.00 0.00
0.21 0.09 0.04 0.03 0.04 0.04 0.07 0.01 0.01 0.04 0.06 0.15 0.04 0.09 0.01 0.01 0.01 0.00 0.00 0.00 0.00 0.00 0.00 0.00 0.00 0.00 0.00 0.00 0.00 0.00 0.00 0.00 0.00 0.00 0.00 0.00 0.00 0.00 0.00 0.00 0.00 0.00
0.30 0.39 0.22 0.18 0.18 0.24 0.07 0.03 0.02 0.10 0.28 0.29 0.10 0.13 0.14 0.10 0.01 0.00 0.00 0.00 0.01 0.01 0.00 0.00 0.00 0.00 0.00 0.00 0.00 0.00 0.00 0.00 0.00 0.00 0.00 0.00 0.00 0.00 0.00 0.00 0.00 0.00
0.48 0.54 0.37 0.28 0.42 0.42 0.39 0.57 0.42 0.32 0.27 0.16 0.07 0.17 0.13 0.09 0.07 0.12 0.05 0.11 0.18 0.01 0.03 0.04 0.02 0.00 0.00 0.00 0.00 0.00 0.00 0.00 0.00 0.00 0.01 0.01 0.01 0.00 0.00 0.00 0.00 0.00
0.13 0.21 0.44 0.95 1.10 1.00 0.83 0.63 0.71 0.77 0.71 0.54 0.31 0.25 0.36 0.52 0.47 0.37 0.32 0.19 0.09 0.02 0.02 0.01 0.06 0.08 0.03 0.02 0.02 0.04 0.02 0.02 0.02 0.02 0.01 0.00 0.01 0.01 0.01 0.00 0.01 0.01
0.29 0.76 0.73 0.59 0.51 0.62 0.86 0.79 0.95 0.84 0.77 0.69 0.75 0.51 0.56 0.50 0.50 0.45 0.39 0.21 0.19 0.19 0.20 0.14 0.10 0.17 0.17 0.14 0.12 0.15 0.07 0.05 0.05 0.03 0.04 0.04 0.04 0.03 0.06 0.26 0.29 0.05
0.63 0.55 0.34 0.29 0.27 0.46 0.82 0.95 0.72 0.54 0.53 0.56 0.46 0.38 0.41 0.37 0.41 0.47 0.21 0.18 0.16 0.14 0.14 0.26 0.14 0.18 0.12 0.25 0.20 0.19 0.12 0.12 0.15 0.12 0.09 0.06 0.04 0.01 0.01 0.05 0.05 0.10
0.15 0.11 0.29 0.12 0.34 0.23 0.11 0.21 0.21 0.39 0.32 0.32 0.36 0.38 0.31 0.29 0.23 0.24 0.27 0.32 0.22 0.17 0.58 0.38 0.65 0.22 0.22 0.10 0.08 0.12 0.14 0.13 0.06 0.08 0.05 0.03 0.02 0.02 0.03 0.04 0.02 0.01
0.01 0.00 0.00 0.01 0.02 0.00 0.01 0.03 0.01 0.01 0.02 0.03 0.05 0.10 0.19 0.38 0.35 0.38 0.23 1.03 0.46 0.32 0.19 0.08 0.05 0.03 0.03 0.03 0.02 0.01 0.01 0.01 0.15 0.09 0.03 0.01 0.03 0.02 0.01 0.01 0.00 0.00
0.00 0.00 0.00 0.00 0.01 0.00 0.00 0.01 0.03 0.01 0.10 0.21 0.05 0.18 0.61 0.48 0.05 0.10 0.37 0.43 0.44 0.33 0.31 0.31 0.21 0.13 0.09 0.07 0.01 0.00 0.01 0.08 0.05 0.02 0.01 0.01 0.01 0.01 0.00 0.00 0.00 0.00
0.00 0.00 0.00 0.00 0.00 0.00 0.00 0.00 0.00 0.00 0.00 0.01 0.01 0.05 0.09 0.08 0.18 0.09 0.03 0.01 0.04 0.22 0.12 0.07 0.05 0.03 0.09 0.11 0.15 0.14 0.14 0.14 0.05 0.06 0.04 0.06 0.01 0.00 0.02 0.01 0.00 0.00
0.00 0.00 0.00 0.00 0.00 0.00 0.00 0.00 0.00 0.00 0.00 0.00 0.01 0.00 0.00 0.01 0.00 0.00 0.01 0.03 0.01 0.02 0.05 0.07 0.22 0.11 0.16 0.12 0.08 0.05 0.05 0.07 0.04 0.00 0.01 0.02 0.01 0.01 0.02 0.00 0.00 0.00
0.00 0.00 0.00 0.00 0.00 0.00 0.00 0.00 0.00 0.00 0.00 0.00 0.00 0.00 0.00 0.00 0.00 0.00 0.01 0.10 0.22 0.17 0.08 0.01 0.06 0.14 0.05 0.08 0.07 0.02 0.02 0.01 0.05 0.05 0.02 0.00 0.03 0.02 0.02 0.00 0.00 0.01
0.00 0.00 0.00 0.00 0.00 0.00 0.00 0.00 0.00 0.00 0.00 0.00 0.00 0.00 0.00 0.00 0.00 0.00 0.01 0.02 0.03 0.05 0.10 0.76 0.56 0.21 0.16 0.10 0.00 0.00 0.19 0.03 0.03 0.03 0.12 0.01 0.12 0.11 0.06 0.06 0.03 0.04
0.00 0.00 0.00 0.00 0.00 0.00 0.00 0.00 0.00 0.00 0.00 0.00 0.00 0.00 0.00 0.00 0.00 0.00 0.01 0.02 0.01 0.01 0.02 0.06 0.02 0.06 0.01 0.00 0.00 0.00 0.12 0.03 0.01 0.05 0.01 0.00 0.05 0.02 0.00 0.00 0.00 0.00
0.00 0.00 0.00 0.00 0.00 0.00 0.00 0.00 0.00 0.00 0.00 0.00 0.00 0.00 0.00 0.00 0.00 0.01 0.00 0.01 0.01 0.02 0.05 0.13 0.14 0.03 0.00 0.00 0.00 0.00 0.01 0.03 0.02 0.01 0.00 0.00 0.00 0.01 0.00 0.01 0.00 0.00
0.00 0.00 0.00 0.00 0.00 0.00 0.00 0.00 0.00 0.00 0.00 0.00 0.00 0.00 0.00 0.01 0.00 0.01 0.01 0.00 0.00 0.01 0.00 0.00 0.00 0.00 0.00 0.00 0.00 0.00 0.04 0.05 0.09 0.05 0.00 0.00 0.00 0.00 0.00 0.00 0.00 0.00
0.01 0.00 0.00 0.00 0.00 0.00 0.00 0.00 0.00 0.00 0.00 0.00 0.00 0.00 0.02 0.03 0.01 0.01 0.01 0.00 0.00 0.00 0.00 0.00 0.00 0.00 0.00 0.00 0.00 0.00 0.00 0.08 0.01 0.00 0.00 0.00 0.00 0.00 0.00 0.00 0.00 0.00

ECMWFNIL_prec_precacc_024.txt.gz
Total_Precipitation_Accumulation
0.04 0.01 0.00 0.00 0.00 0.01 0.03 0.01 0.01 0.00 0.00 0.00 0.00 0.00 0.00 0.00 0.00 0.00 0.00 0.00 0.00 0.00 0.00 0.00 0.00 0.00 0.00 0.00 0.00 0.00 0.00 0.00 0.00 0.00 0.00 0.00 0.00 0.00 0.00 0.00 0.00 0.00
0.04 0.03 0.02 0.01 0.01 0.00 0.00 0.00 0.00 0.00 0.00 0.00 0.00 0.00 0.00 0.00 0.00 0.00 0.00 0.00 0.00 0.00 0.00 0.00 0.00 0.00 0.00 0.00 0.00 0.00 0.00 0.00 0.00 0.00 0.00 0.00 0.00 0.00 0.00 0.00 0.00 0.00
0.03 0.01 0.02 0.03 0.03 0.00 0.01 0.02 0.00 0.00 0.00 0.00 0.00 0.00 0.00 0.00 0.00 0.00 0.00 0.00 0.00 0.00 0.00 0.00 0.00 0.00 0.00 0.00 0.00 0.00 0.00 0.00 0.00 0.00 0.00 0.00 0.00 0.00 0.00 0.00 0.00 0.00
0.09 0.04 0.02 0.03 0.00 0.02 0.04 0.00 0.02 0.02 0.00 0.00 0.00 0.00 0.00 0.00 0.00 0.00 0.00 0.00 0.00 0.00 0.00 0.00 0.00 0.00 0.00 0.00 0.00 0.00 0.00 0.00 0.00 0.00 0.00 0.00 0.00 0.00 0.00 0.00 0.00 0.00
0.11 0.01 0.04 0.04 0.04 0.04 0.04 0.05 0.04 0.01 0.00 0.00 0.00 0.00 0.00 0.00 0.00 0.00 0.00 0.00 0.00 0.00 0.00 0.00 0.00 0.00 0.00 0.00 0.00 0.00 0.00 0.00 0.00 0.00 0.00 0.00 0.00 0.00 0.00 0.00 0.00 0.00
0.07 0.05 0.09 0.06 0.02 0.04 0.06 0.01 0.00 0.00 0.00 0.00 0.00 0.00 0.00 0.00 0.00 0.00 0.00 0.00 0.00 0.00 0.00 0.00 0.00 0.00 0.00 0.00 0.00 0.00 0.00 0.00 0.00 0.00 0.00 0.00 0.00 0.00 0.00 0.00 0.00 0.00
0.06 0.06 0.05 0.02 0.04 0.04 0.01 0.03 0.03 0.00 0.00 0.00 0.00 0.00 0.00 0.00 0.00 0.00 0.00 0.00 0.00 0.00 0.00 0.00 0.00 0.00 0.00 0.00 0.00 0.00 0.00 0.00 0.00 0.00 0.00 0.00 0.00 0.00 0.00 0.00 0.00 0.00
0.01 0.03 0.05 0.03 0.00 0.06 0.04 0.08 0.02 0.00 0.01 0.00 0.00 0.00 0.01 0.00 0.00 0.00 0.00 0.00 0.00 0.00 0.00 0.00 0.00 0.00 0.00 0.00 0.00 0.00 0.00 0.00 0.00 0.00 0.00 0.00 0.00 0.00 0.00 0.00 0.00 0.00
0.03 0.01 0.01 0.03 0.01 0.01 0.07 0.11 0.04 0.15 0.04 0.01 0.01 0.01 0.01 0.00 0.01 0.01 0.01 0.00 0.00 0.00 0.00 0.00 0.00 0.00 0.00 0.00 0.00 0.00 0.00 0.00 0.00 0.00 0.00 0.00 0.00 0.00 0.00 0.00 0.00 0.00
0.21 0.09 0.04 0.03 0.04 0.04 0.07 0.01 0.01 0.04 0.06 0.15 0.04 0.09 0.01 0.01 0.01 0.00 0.00 0.00 0.00 0.00 0.00 0.00 0.00 0.00 0.00 0.00 0.00 0.00 0.00 0.00 0.00 0.00 0.00 0.00 0.00 0.00 0.00 0.00 0.00 0.00
0.30 0.39 0.22 0.18 0.18 0.24 0.07 0.03 0.02 0.10 0.28 0.29 0.10 0.13 0.14 0.10 0.01 0.00 0.00 0.00 0.01 0.01 0.00 0.00 0.00 0.00 0.00 0.00 0.00 0.00 0.00 0.00 0.00 0.00 0.00 0.00 0.00 0.00 0.00 0.00 0.00 0.00
0.48 0.54 0.37 0.29 0.42 0.43 0.39 0.57 0.42 0.32 0.27 0.16 0.07 0.17 0.13 0.09 0.07 0.12 0.05 0.11 0.18 0.01 0.03 0.04 0.02 0.00 0.00 0.00 0.00 0.00 0.00 0.00 0.00 0.00 0.01 0.01 0.01 0.00 0.00 0.00 0.00 0.00
0.14 0.22 0.44 0.95 1.11 1.01 0.84 0.63 0.71 0.77 0.71 0.54 0.31 0.25 0.36 0.52 0.47 0.37 0.32 0.19 0.09 0.02 0.02 0.01 0.06 0.08 0.03 0.02 0.02 0.04 0.02 0.02 0.02 0.02 0.01 0.00 0.01 0.01 0.01 0.00 0.01 0.01
0.31 0.77 0.73 0.59 0.51 0.63 0.87 0.80 0.96 0.84 0.77 0.69 0.75 0.51 0.56 0.51 0.50 0.45 0.39 0.21 0.19 0.19 0.20 0.14 0.10 0.17 0.17 0.14 0.12 0.15 0.07 0.05 0.05 0.03 0.04 0.04 0.04 0.03 0.06 0.26 0.29 0.05
0.65 0.56 0.34 0.29 0.27 0.46 0.82 0.96 0.72 0.54 0.53 0.56 0.46 0.38 0.41 0.37 0.41 0.47 0.21 0.18 0.16 0.14 0.14 0.26 0.14 0.18 0.12 0.25 0.20 0.19 0.12 0.12 0.15 0.12 0.09 0.06 0.05 0.02 0.02 0.05 0.05 0.10
0.15 0.11 0.29 0.12 0.35 0.24 0.11 0.21 0.22 0.39 0.32 0.32 0.36 0.38 0.31 0.29 0.23 0.24 0.27 0.33 0.24 0.17 0.58 0.40 0.66 0.23 0.22 0.10 0.09 0.12 0.14 0.13 0.06 0.08 0.07 0.03 0.03 0.03 0.04 0.05 0.03 0.01
0.01 0.00 0.00 0.02 0.03 0.01 0.02 0.03 0.02 0.02 0.03 0.04 0.05 0.10 0.19 0.38 0.35 0.38 0.23 1.04 0.48 0.38 0.22 0.09 0.05 0.03 0.04 0.04 0.02 0.01 0.01 0.01 0.15 0.11 0.05 0.04 0.04 0.06 0.01 0.02 0.01 0.00
0.00 0.00 0.00 0.00 0.01 0.01 0.01 0.02 0.03 0.02 0.11 0.21 0.06 0.19 0.62 0.49 0.05 0.10 0.38 0.44 0.46 0.34 0.34 0.34 0.22 0.14 0.10 0.08 0.02 0.01 0.02 0.09 0.06 0.03 0.03 0.02 0.03 0.02 0.01 0.04 0.16 0.08
0.00 0.00 0.00 0.00 0.01 0.01 0.01 0.01 0.01 0.01 0.01 0.01 0.02 0.05 0.10 0.09 0.19 0.10 0.04 0.02 0.05 0.23 0.13 0.12 0.08 0.03 0.11 0.13 0.17 0.16 0.17 0.20 0.08 0.07 0.05 0.14 0.07 0.06 0.15 0.13 0.13 0.01
0.00 0.00 0.00 0.00 0.00 0.00 0.01 0.01 0.01 0.03 0.01 0.01 0.01 0.01 0.02 0.02 0.02 0.01 0.02 0.03 0.01 0.02 0.07 0.12 0.23 0.12 0.20 0.13 0.08 0.06 0.07 0.11 0.08 0.04 0.05 0.04 0.06 0.12 0.12 0.08 0.01 0.00
0.00 0.00 0.00 0.00 0.00 0.00 0.00 0.01 0.01 0.01 0.00 0.00 0.00 0.00 0.00 0.01 0.01 0.01 0.02 0.11 0.23 0.18 0.08 0.02 0.07 0.15 0.06 0.08 0.09 0.03 0.03 0.04 0.19 0.12 0.10 0.05 0.05 0.02 0.02 0.00 0.00 0.01
0.00 0.00 0.00 0.00 0.00 0.00 0.00 0.01 0.01 0.01 0.01 0.01 0.01 0.01 0.01 0.01 0.01 0.01 0.02 0.03 0.04 0.06 0.11 0.76 0.56 0.22 0.19 0.11 0.04 0.12 0.29 0.16 0.15 0.11 0.15 0.03 0.16 0.12 0.06 0.06 0.03 0.04
0.00 0.00 0.00 0.00 0.00 0.00 0.00 0.00 0.00 0.01 0.01 0.01 0.01 0.01 0.01 0.01 0.01 0.01 0.02 0.04 0.03 0.02 0.04 0.07 0.02 0.06 0.01 0.00 0.00 0.00 0.12 0.03 0.01 0.08 0.10 0.03 0.05 0.02 0.00 0.00 0.00 0.00
0.00 0.00 0.00 0.00 0.00 0.00 0.00 0.00 0.00 0.00 0.00 0.00 0.00 0.01 0.01 0.01 0.01 0.01 0.01 0.02 0.02 0.03 0.06 0.16 0.30 0.34 0.01 0.00 0.00 0.00 0.01 0.03 0.02 0.01 0.00 0.00 0.00 0.01 0.00 0.01 0.00 0.00
0.00 0.00 0.00 0.00 0.00 0.00 0.00 0.00 0.00 0.00 0.00 0.00 0.00 0.00 0.01 0.02 0.01 0.01 0.01 0.01 0.00 0.03 0.03 0.00 0.01 0.00 0.00 0.00 0.00 0.00 0.04 0.05 0.09 0.05 0.00 0.00 0.00 0.00 0.00 0.00 0.00 0.00
0.01 0.00 0.00 0.00 0.00 0.00 0.01 0.00 0.00 0.00 0.00 0.00 0.00 0.00 0.02 0.03 0.02 0.01 0.01 0.01 0.03 0.00 0.00 0.01 0.00 0.00 0.00 0.00 0.00 0.00 0.00 0.08 0.01 0.00 0.00 0.00 0.00 0.00 0.00 0.00 0.00 0.00

ECMWFNIL_prec_precacc_027.txt.gz
Total_Precipitation_Accumulation
0.04 0.01 0.00 0.00 0.00 0.01 0.03 0.01 0.01 0.00 0.00 0.00 0.00 0.00 0.00 0.00 0.00 0.00 0.00 0.00 0.00 0.00 0.00 0.00 0.00 0.00 0.00 0.00 0.00 0.00 0.00 0.00 0.00 0.00 0.01 0.02 0.03 0.01 0.01 0.01 0.00 0.00
0.04 0.03 0.02 0.01 0.01 0.00 0.00 0.00 0.00 0.00 0.00 0.00 0.00 0.00 0.00 0.00 0.00 0.00 0.00 0.00 0.00 0.00 0.00 0.00 0.00 0.00 0.00 0.00 0.00 0.00 0.00 0.00 0.00 0.00 0.00 0.00 0.00 0.00 0.00 0.00 0.00 0.00
0.03 0.01 0.02 0.03 0.03 0.00 0.01 0.02 0.00 0.00 0.00 0.00 0.00 0.00 0.00 0.00 0.00 0.00 0.00 0.00 0.00 0.00 0.00 0.00 0.00 0.00 0.00 0.00 0.00 0.00 0.00 0.00 0.00 0.00 0.00 0.00 0.00 0.00 0.00 0.00 0.00 0.00
0.12 0.04 0.02 0.03 0.00 0.02 0.04 0.00 0.02 0.02 0.00 0.00 0.00 0.00 0.00 0.00 0.00 0.00 0.00 0.00 0.00 0.00 0.00 0.00 0.00 0.00 0.00 0.00 0.00 0.00 0.00 0.00 0.00 0.00 0.00 0.00 0.00 0.00 0.00 0.00 0.00 0.00
0.25 0.01 0.04 0.04 0.04 0.04 0.04 0.05 0.04 0.01 0.00 0.00 0.00 0.00 0.00 0.00 0.00 0.00 0.00 0.00 0.00 0.00 0.00 0.00 0.00 0.00 0.00 0.00 0.00 0.00 0.00 0.00 0.00 0.00 0.00 0.00 0.00 0.00 0.00 0.00 0.00 0.00
0.21 0.09 0.09 0.06 0.02 0.04 0.06 0.01 0.00 0.00 0.00 0.00 0.00 0.00 0.00 0.00 0.00 0.00 0.00 0.00 0.00 0.00 0.00 0.00 0.00 0.00 0.00 0.00 0.00 0.00 0.00 0.00 0.00 0.00 0.00 0.00 0.00 0.00 0.00 0.00 0.00 0.00
0.11 0.08 0.06 0.02 0.04 0.04 0.01 0.03 0.03 0.00 0.00 0.00 0.00 0.00 0.00 0.00 0.00 0.00 0.00 0.00 0.00 0.00 0.00 0.00 0.00 0.00 0.00 0.00 0.00 0.00 0.00 0.00 0.00 0.00 0.00 0.00 0.00 0.00 0.00 0.00 0.00 0.00
0.03 0.03 0.05 0.03 0.01 0.06 0.04 0.08 0.02 0.00 0.01 0.00 0.00 0.00 0.01 0.00 0.00 0.00 0.00 0.00 0.00 0.00 0.00 0.00 0.00 0.00 0.00 0.00 0.00 0.00 0.00 0.00 0.00 0.00 0.00 0.00 0.00 0.00 0.00 0.00 0.00 0.00
0.03 0.01 0.01 0.04 0.01 0.02 0.07 0.11 0.04 0.15 0.04 0.01 0.01 0.01 0.01 0.00 0.01 0.01 0.01 0.00 0.00 0.00 0.00 0.00 0.00 0.00 0.00 0.00 0.00 0.00 0.00 0.00 0.00 0.00 0.00 0.00 0.00 0.00 0.00 0.00 0.00 0.00
0.22 0.09 0.04 0.03 0.05 0.04 0.08 0.01 0.01 0.04 0.06 0.15 0.04 0.09 0.01 0.01 0.01 0.00 0.00 0.00 0.00 0.00 0.00 0.00 0.00 0.00 0.00 0.00 0.00 0.00 0.00 0.00 0.00 0.00 0.00 0.00 0.00 0.00 0.00 0.00 0.00 0.00
0.31 0.40 0.23 0.19 0.18 0.25 0.09 0.03 0.02 0.10 0.28 0.29 0.10 0.13 0.14 0.10 0.01 0.00 0.00 0.00 0.01 0.01 0.00 0.00 0.00 0.00 0.00 0.00 0.00 0.00 0.00 0.00 0.00 0.00 0.00 0.00 0.00 0.00 0.00 0.00 0.00 0.00
0.48 0.55 0.38 0.29 0.42 0.43 0.40 0.59 0.42 0.32 0.27 0.16 0.07 0.17 0.13 0.09 0.07 0.12 0.05 0.11 0.18 0.01 0.03 0.04 0.02 0.00 0.00 0.00 0.00 0.00 0.00 0.00 0.00 0.00 0.01 0.01 0.01 0.00 0.00 0.00 0.00 0.00
0.16 0.24 0.47 0.97 1.12 1.02 0.85 0.64 0.71 0.77 0.72 0.54 0.31 0.25 0.36 0.52 0.47 0.37 0.32 0.19 0.09 0.02 0.02 0.01 0.06 0.08 0.03 0.02 0.02 0.04 0.02 0.02 0.02 0.02 0.01 0.00 0.01 0.01 0.01 0.00 0.01 0.01
0.33 0.79 0.75 0.62 0.53 0.64 0.88 0.80 0.96 0.85 0.77 0.70 0.75 0.51 0.56 0.51 0.50 0.45 0.39 0.21 0.19 0.19 0.20 0.14 0.10 0.17 0.17 0.14 0.12 0.15 0.07 0.05 0.05 0.03 0.04 0.04 0.04 0.03 0.06 0.26 0.29 0.05
0.66 0.57 0.34 0.31 0.28 0.47 0.84 0.96 0.73 0.54 0.54 0.56 0.46 0.38 0.41 0.38 0.41 0.47 0.21 0.18 0.16 0.14 0.14 0.26 0.14 0.18 0.12 0.25 0.20 0.19 0.12 0.12 0.15 0.12 0.09 0.06 0.05 0.02 0.02 0.05 0.05 0.10
0.16 0.12 0.30 0.13 0.36 0.25 0.14 0.26 0.22 0.39 0.32 0.32 0.36 0.39 0.32 0.30 0.23 0.24 0.27 0.33 0.24 0.17 0.58 0.40 0.66 0.23 0.22 0.10 0.09 0.12 0.14 0.13 0.06 0.08 0.07 0.04 0.04 0.04 0.07 0.07 0.04 0.02
0.01 0.00 0.00 0.03 0.03 0.01 0.02 0.05 0.03 0.04 0.06 0.05 0.06 0.11 0.21 0.38 0.35 0.38 0.23 1.04 0.48 0.39 0.22 0.09 0.05 0.03 0.04 0.04 0.02 0.01 0.01 0.01 0.15 0.11 0.05 0.04 0.05 0.07 0.04 0.11 0.07 0.19
0.00 0.01 0.00 0.01 0.02 0.01 0.01 0.02 0.04 0.03 0.12 0.23 0.08 0.22 0.69 0.53 0.09 0.11 0.39 0.45 0.47 0.35 0.35 0.34 0.22 0.14 0.10 0.08 0.02 0.01 0.02 0.09 0.06 0.03 0.04 0.03 0.04 0.04 0.06 0.07 0.34 0.66
0.00 0.00 0.01 0.01 0.02 0.01 0.01 0.02 0.02 0.01 0.02 0.03 0.08 0.08 0.17 0.14 0.25 0.18 0.11 0.07 0.06 0.25 0.15 0.13 0.09 0.03 0.11 0.13 0.17 0.16 0.17 0.20 0.08 0.08 0.06 0.14 0.08 0.06 0.17 0.17 0.23 0.36
0.00 0.00 0.00 0.00 0.01 0.01 0.01 0.01 0.02 0.04 0.02 0.03 0.03 0.07 0.05 0.08 0.10 0.05 0.05 0.14 0.05 0.05 0.09 0.23 0.38 0.13 0.20 0.13 0.08 0.06 0.07 0.11 0.08 0.05 0.06 0.05 0.09 0.18 0.21 0.19 0.19 0.18
0.00 0.00 0.00 0.00 0.00 0.00 0.01 0.01 0.01 0.02 0.01 0.01 0.01 0.02 0.04 0.11 0.04 0.10 0.10 0.21 0.25 0.29 0.49 0.52 0.31 0.29 0.10 0.08 0.11 0.04 0.06 0.06 0.20 0.13 0.11 0.06 0.09 0.08 0.15 0.05 0.17 0.13
0.00 0.00 0.00 0.00 0.00 0.00 0.00 0.01 0.01 0.02 0.02 0.03 0.02 0.02 0.02 0.06 0.03 0.08 0.09 0.14 0.13 0.16 0.17 0.92 0.65 0.23 0.19 0.11 0.04 0.12 0.30 0.20 0.15 0.14 0.17 0.06 0.25 0.13 0.08 0.07 0.04 0.05
0.00 0.00 0.00 0.00 0.00 0.00 0.00 0.00 0.00 0.01 0.01 0.02 0.02 0.02 0.02 0.02 0.07 0.05 0.04 0.08 0.05 0.15 0.15 0.24 0.09 0.10 0.01 0.00 0.00 0.00 0.12 0.03 0.02 0.09 0.13 0.17 0.14 0.10 0.02 0.03 0.06 0.05
0.00 0.00 0.00 0.00 0.00 0.00 0.00 0.00 0.00 0.00 0.00 0.00 0.01 0.02 0.02 0.02 0.02 0.03 0.03 0.04 0.10 0.08 0.15 0.37 0.62 0.47 0.01 0.00 0.00 0.00 0.01 0.03 0.02 0.02 0.04 0.02 0.01 0.03 0.07 0.09 0.05 0.00
0.00 0.00 0.00 0.00 0.00 0.00 0.00 0.00 0.00 0.00 0.00 0.00 0.00 0.00 0.01 0.03 0.02 0.02 0.03 0.03 0.05 0.07 0.10 0.08 0.07 0.01 0.00 0.00 0.00 0.00 0.04 0.23 0.14 0.06 0.03 0.05 0.03 0.04 0.01 0.01 0.00 0.00
0.01 0.00 0.00 0.00 0.00 0.00 0.01 0.00 0.00 0.00 0.00 0.00 0.00 0.00 0.02 0.03 0.02 0.02 0.02 0.02 0.05 0.02 0.02 0.06 0.09 0.02 0.00 0.00 0.00 0.00 0.00 0.11 0.05 0.02 0.29 0.04 0.09 0.00 0.00 0.00 0.00 0.00

ECMWFNIL_prec_precacc_030.txt.gz
Total_Precipitation_Accumulation
0.04 0.02 0.00 0.00 0.00 0.01 0.03 0.01 0.01 0.00 0.00 0.00 0.00 0.00 0.00 0.00 0.00 0.00 0.00 0.00 0.00 0.00 0.00 0.00 0.00 0.00 0.00 0.00 0.00 0.00 0.00 0.00 0.00 0.00 0.01 0.02 0.03 0.01 0.01 0.01 0.00 0.00
0.04 0.03 0.02 0.01 0.01 0.00 0.00 0.00 0.00 0.00 0.00 0.00 0.00 0.00 0.00 0.00 0.00 0.00 0.00 0.00 0.00 0.00 0.00 0.00 0.00 0.00 0.00 0.00 0.00 0.00 0.00 0.00 0.00 0.00 0.00 0.00 0.00 0.00 0.00 0.00 0.00 0.00
0.04 0.03 0.02 0.03 0.03 0.00 0.01 0.02 0.00 0.00 0.00 0.00 0.00 0.00 0.00 0.00 0.00 0.00 0.00 0.00 0.00 0.00 0.00 0.00 0.00 0.00 0.00 0.00 0.00 0.00 0.00 0.00 0.00 0.00 0.00 0.00 0.00 0.00 0.00 0.00 0.00 0.00
0.15 0.09 0.03 0.03 0.00 0.02 0.04 0.00 0.02 0.02 0.00 0.00 0.00 0.00 0.00 0.00 0.00 0.00 0.00 0.00 0.00 0.00 0.00 0.00 0.00 0.00 0.00 0.00 0.00 0.00 0.00 0.00 0.00 0.00 0.00 0.00 0.00 0.00 0.00 0.00 0.00 0.00
0.29 0.13 0.05 0.05 0.04 0.04 0.04 0.05 0.04 0.01 0.00 0.00 0.00 0.00 0.00 0.00 0.00 0.00 0.00 0.00 0.00 0.00 0.00 0.00 0.00 0.00 0.00 0.00 0.00 0.00 0.00 0.00 0.00 0.00 0.00 0.00 0.00 0.00 0.00 0.00 0.00 0.00
0.21 0.16 0.10 0.07 0.02 0.04 0.06 0.01 0.00 0.00 0.00 0.00 0.00 0.00 0.00 0.00 0.00 0.00 0.00 0.00 0.00 0.00 0.00 0.00 0.00 0.00 0.00 0.00 0.00 0.00 0.00 0.00 0.00 0.00 0.00 0.00 0.00 0.00 0.00 0.00 0.00 0.00
0.11 0.08 0.07 0.03 0.04 0.04 0.01 0.03 0.03 0.00 0.00 0.00 0.00 0.00 0.00 0.00 0.00 0.00 0.00 0.00 0.00 0.00 0.00 0.00 0.00 0.00 0.00 0.00 0.00 0.00 0.00 0.00 0.00 0.00 0.00 0.00 0.00 0.00 0.00 0.00 0.00 0.00
0.05 0.03 0.05 0.03 0.01 0.06 0.04 0.08 0.02 0.00 0.01 0.00 0.00 0.00 0.01 0.00 0.00 0.00 0.00 0.00 0.00 0.00 0.00 0.00 0.00 0.00 0.00 0.00 0.00 0.00 0.00 0.00 0.00 0.00 0.00 0.00 0.00 0.00 0.00 0.00 0.00 0.00
0.04 0.04 0.03 0.07 0.01 0.02 0.07 0.11 0.04 0.15 0.04 0.01 0.01 0.01 0.01 0.00 0.01 0.01 0.01 0.00 0.00 0.00 0.00 0.00 0.00 0.00 0.00 0.00 0.00 0.00 0.00 0.00 0.00 0.00 0.00 0.00 0.00 0.00 0.00 0.00 0.00 0.00
0.25 0.12 0.07 0.04 0.05 0.05 0.08 0.01 0.01 0.04 0.06 0.15 0.04 0.09 0.01 0.01 0.01 0.00 0.00 0.00 0.00 0.00 0.00 0.00 0.00 0.00 0.00 0.00 0.00 0.00 0.00 0.00 0.00 0.00 0.00 0.00 0.00 0.00 0.00 0.00 0.00 0.00
0.31 0.41 0.24 0.20 0.20 0.26 0.10 0.03 0.02 0.10 0.28 0.29 0.10 0.13 0.14 0.10 0.01 0.00 0.00 0.00 0.01 0.01 0.00 0.00 0.00 0.00 0.00 0.00 0.00 0.00 0.00 0.00 0.00 0.00 0.00 0.00 0.00 0.00 0.00 0.00 0.00 0.00
0.48 0.56 0.38 0.29 0.43 0.45 0.40 0.59 0.42 0.32 0.27 0.16 0.07 0.17 0.13 0.09 0.07 0.12 0.05 0.11 0.18 0.01 0.03 0.04 0.02 0.00 0.00 0.00 0.00 0.00 0.00 0.00 0.00 0.00 0.01 0.01 0.01 0.00 0.00 0.00 0.00 0.00
0.17 0.24 0.48 0.97 1.13 1.03 0.85 0.65 0.71 0.77 0.72 0.54 0.31 0.25 0.36 0.52 0.47 0.37 0.32 0.19 0.09 0.02 0.02 0.01 0.06 0.08 0.03 0.02 0.02 0.04 0.02 0.02 0.02 0.02 0.01 0.00 0.01 0.01 0.01 0.00 0.01 0.01
0.33 0.79 0.76 0.62 0.53 0.64 0.88 0.81 0.97 0.86 0.78 0.70 0.75 0.51 0.56 0.51 0.50 0.45 0.39 0.21 0.19 0.19 0.20 0.14 0.10 0.17 0.17 0.14 0.12 0.15 0.07 0.05 0.05 0.03 0.04 0.04 0.04 0.03 0.06 0.26 0.29 0.05
0.70 0.69 0.38 0.31 0.29 0.48 0.85 0.97 0.74 0.54 0.54 0.56 0.46 0.38 0.41 0.38 0.41 0.47 0.21 0.18 0.16 0.14 0.14 0.26 0.14 0.18 0.12 0.25 0.20 0.19 0.12 0.12 0.15 0.12 0.09 0.06 0.05 0.02 0.02 0.05 0.05 0.10
0.18 0.13 0.31 0.14 0.37 0.29 0.16 0.26 0.23 0.42 0.33 0.34 0.36 0.39 0.32 0.30 0.23 0.24 0.27 0.33 0.24 0.17 0.58 0.40 0.66 0.23 0.22 0.10 0.09 0.12 0.14 0.13 0.06 0.08 0.07 0.04 0.04 0.04 0.07 0.07 0.04 0.03
0.01 0.01 0.01 0.03 0.03 0.02 0.02 0.05 0.03 0.08 0.10 0.06 0.09 0.11 0.22 0.39 0.35 0.38 0.24 1.04 0.48 0.39 0.22 0.09 0.05 0.03 0.04 0.04 0.02 0.01 0.01 0.01 0.15 0.11 0.05 0.04 0.05 0.07 0.04 0.11 0.07 0.28
0.00 0.02 0.01 0.01 0.03 0.02 0.02 0.03 0.05 0.04 0.14 0.24 0.10 0.32 0.80 0.53 0.09 0.11 0.42 0.46 0.47 0.35 0.35 0.35 0.24 0.24 0.10 0.08 0.02 0.01 0.02 0.09 0.06 0.03 0.04 0.03 0.04 0.04 0.06 0.12 0.50 0.66
0.00 0.01 0.01 0.01 0.02 0.02 0.01 0.02 0.02 0.03 0.04 0.07 0.10 0.13 0.21 0.14 0.26 0.22 0.17 0.12 0.11 0.44 0.45 0.86 0.89 0.32 0.22 0.15 0.17 0.16 0.17 0.20 0.08 0.08 0.06 0.14 0.08 0.07 0.18 0.29 0.35 0.42
0.00 0.00 0.00 0.00 0.01 0.02 0.02 0.02 0.02 0.04 0.03 0.05 0.05 0.08 0.06 0.09 0.13 0.06 0.09 0.36 0.20 0.07 0.16 0.48 0.99 0.34 0.23 0.13 0.08 0.06 0.07 0.11 0.08 0.05 0.06 0.08 0.09 0.25 0.44 0.49 0.87 0.31
0.00 0.00 0.00 0.00 0.00 0.00 0.01 0.01 0.02 0.02 0.02 0.02 0.03 0.05 0.04 0.11 0.04 0.10 0.13 0.34 0.29 0.33 0.50 0.55 0.39 0.31 0.10 0.08 0.11 0.04 0.06 0.06 0.20 0.13 0.13 0.08 0.25 0.54 0.38 0.14 0.19 0.16
0.00 0.00 0.00 0.00 0.00 0.00 0.00 0.01 0.01 0.02 0.02 0.03 0.02 0.03 0.03 0.07 0.03 0.08 0.09 0.14 0.13 0.18 0.19 0.96 0.97 0.25 0.19 0.11 0.04 0.12 0.30 0.21 0.16 0.20 0.25 0.29 0.84 0.34 0.11 0.17 0.12 0.05
0.00 0.00 0.00 0.00 0.00 0.00 0.00 0.00 0.00 0.01 0.01 0.02 0.02 0.02 0.02 0.03 0.07 0.05 0.04 0.08 0.05 0.15 0.15 0.25 0.10 0.11 0.01 0.00 0.00 0.00 0.12 0.05 0.02 0.12 0.22 0.40 0.27 0.11 0.13 0.11 0.07 0.05
0.00 0.00 0.00 0.00 0.00 0.00 0.00 0.00 0.00 0.00 0.00 0.00 0.01 0.02 0.02 0.02 0.03 0.03 0.03 0.05 0.13 0.08 0.15 0.37 0.62 0.47 0.02 0.00 0.00 0.00 0.02 0.04 0.03 0.04 0.13 0.07 0.03 0.13 0.09 0.12 0.07 0.01
0.00 0.00 0.00 0.00 0.00 0.00 0.00 0.00 0.00 0.00 0.00 0.00 0.00 0.00 0.01 0.03 0.02 0.02 0.03 0.04 0.06 0.14 0.11 0.09 0.09 0.02 0.00 0.00 0.00 0.00 0.04 0.23 0.14 0.06 0.04 0.16 0.22 0.08 0.02 0.01 0.00 0.00
0.01 0.00 0.00 0.00 0.00 0.00 0.01 0.00 0.00 0.00 0.00 0.00 0.00 0.00 0.02 0.03 0.02 0.02 0.03 0.02 0.05 0.03 0.03 0.07 0.12 0.04 0.00 0.00 0.00 0.00 0.00 0.11 0.06 0.03 0.30 0.06 0.14 0.04 0.02 0.04 0.04 0.02

ECMWFNIL_prec_precacc_033.txt.gz
Total_Precipitation_Accumulation
0.04 0.02 0.00 0.00 0.00 0.01 0.03 0.01 0.01 0.00 0.00 0.00 0.00 0.00 0.00 0.00 0.00 0.00 0.00 0.00 0.00 0.00 0.00 0.00 0.00 0.00 0.00 0.00 0.00 0.00 0.00 0.00 0.00 0.00 0.01 0.02 0.03 0.01 0.01 0.01 0.00 0.00
0.04 0.03 0.02 0.01 0.01 0.00 0.00 0.00 0.00 0.00 0.00 0.00 0.00 0.00 0.00 0.00 0.00 0.00 0.00 0.00 0.00 0.00 0.00 0.00 0.00 0.00 0.00 0.00 0.00 0.00 0.00 0.00 0.00 0.00 0.00 0.00 0.00 0.00 0.00 0.00 0.00 0.00
0.04 0.03 0.02 0.03 0.03 0.00 0.01 0.02 0.00 0.00 0.00 0.00 0.00 0.00 0.00 0.00 0.00 0.00 0.00 0.00 0.00 0.00 0.00 0.00 0.00 0.00 0.00 0.00 0.00 0.00 0.00 0.00 0.00 0.00 0.00 0.00 0.00 0.00 0.00 0.00 0.00 0.00
0.15 0.09 0.03 0.03 0.00 0.02 0.04 0.00 0.02 0.02 0.00 0.00 0.00 0.00 0.00 0.00 0.00 0.00 0.00 0.00 0.00 0.00 0.00 0.00 0.00 0.00 0.00 0.00 0.00 0.00 0.00 0.00 0.00 0.00 0.00 0.00 0.00 0.00 0.00 0.00 0.00 0.00
0.29 0.13 0.05 0.05 0.04 0.04 0.04 0.05 0.04 0.01 0.00 0.00 0.00 0.00 0.00 0.00 0.00 0.00 0.00 0.00 0.00 0.00 0.00 0.00 0.00 0.00 0.00 0.00 0.00 0.00 0.00 0.00 0.00 0.00 0.00 0.00 0.00 0.00 0.00 0.00 0.00 0.00
0.21 0.16 0.10 0.07 0.02 0.04 0.06 0.01 0.00 0.00 0.00 0.00 0.00 0.00 0.00 0.00 0.00 0.00 0.00 0.00 0.00 0.00 0.00 0.00 0.00 0.00 0.00 0.00 0.00 0.00 0.00 0.00 0.00 0.00 0.00 0.00 0.00 0.00 0.00 0.00 0.00 0.00
0.11 0.08 0.07 0.03 0.04 0.04 0.01 0.03 0.03 0.00 0.00 0.00 0.00 0.00 0.00 0.00 0.00 0.00 0.00 0.00 0.00 0.00 0.00 0.00 0.00 0.00 0.00 0.00 0.00 0.00 0.00 0.00 0.00 0.00 0.00 0.00 0.00 0.00 0.00 0.00 0.00 0.00
0.05 0.03 0.05 0.03 0.01 0.06 0.04 0.08 0.02 0.00 0.01 0.00 0.00 0.00 0.01 0.00 0.00 0.00 0.00 0.00 0.00 0.00 0.00 0.00 0.00 0.00 0.00 0.00 0.00 0.00 0.00 0.00 0.00 0.00 0.00 0.00 0.00 0.00 0.00 0.00 0.00 0.00
0.04 0.04 0.03 0.07 0.01 0.02 0.07 0.11 0.04 0.15 0.04 0.01 0.01 0.01 0.01 0.00 0.01 0.01 0.01 0.00 0.00 0.00 0.00 0.00 0.00 0.00 0.00 0.00 0.00 0.00 0.00 0.00 0.00 0.00 0.00 0.00 0.00 0.00 0.00 0.00 0.00 0.00
0.26 0.13 0.08 0.05 0.05 0.05 0.08 0.01 0.01 0.04 0.06 0.15 0.04 0.09 0.01 0.01 0.01 0.00 0.00 0.00 0.00 0.00 0.00 0.00 0.00 0.00 0.00 0.00 0.00 0.00 0.00 0.00 0.00 0.00 0.00 0.00 0.00 0.00 0.00 0.00 0.00 0.00
0.31 0.41 0.24 0.21 0.20 0.26 0.10 0.03 0.02 0.10 0.28 0.29 0.10 0.13 0.14 0.10 0.01 0.00 0.00 0.00 0.01 0.01 0.00 0.00 0.00 0.00 0.00 0.00 0.00 0.00 0.00 0.00 0.00 0.00 0.00 0.00 0.00 0.00 0.00 0.00 0.00 0.00
0.48 0.56 0.38 0.29 0.43 0.45 0.40 0.59 0.42 0.32 0.27 0.16 0.07 0.17 0.13 0.09 0.07 0.12 0.05 0.11 0.18 0.01 0.03 0.04 0.02 0.00 0.00 0.00 0.00 0.00 0.00 0.00 0.00 0.00 0.01 0.01 0.01 0.00 0.00 0.00 0.00 0.00
0.48 0.53 0.76 1.12 1.13 1.03 0.85 0.65 0.71 0.77 0.72 0.54 0.31 0.25 0.36 0.52 0.47 0.37 0.32 0.19 0.09 0.02 0.02 0.01 0.06 0.08 0.03 0.02 0.02 0.04 0.02 0.02 0.02 0.02 0.01 0.00 0.01 0.01 0.01 0.00 0.01 0.01
0.70 0.94 0.85 0.69 0.68 0.75 0.88 0.81 0.97 0.86 0.78 0.70 0.75 0.51 0.56 0.51 0.50 0.45 0.39 0.21 0.19 0.19 0.20 0.14 0.10 0.17 0.17 0.14 0.12 0.15 0.07 0.05 0.05 0.03 0.04 0.04 0.04 0.03 0.06 0.26 0.29 0.05
0.83 0.73 0.49 0.40 0.36 0.48 0.85 0.97 0.74 0.55 0.54 0.56 0.46 0.38 0.41 0.38 0.41 0.47 0.21 0.18 0.16 0.14 0.14 0.26 0.14 0.18 0.12 0.25 0.20 0.19 0.12 0.12 0.15 0.12 0.09 0.06 0.05 0.02 0.02 0.05 0.05 0.10
0.35 0.25 0.39 0.24 0.52 0.31 0.17 0.27 0.23 0.43 0.33 0.34 0.36 0.39 0.32 0.30 0.23 0.24 0.27 0.33 0.24 0.17 0.58 0.40 0.66 0.23 0.22 0.10 0.09 0.12 0.14 0.13 0.06 0.08 0.07 0.04 0.04 0.04 0.07 0.07 0.04 0.03
0.07 0.06 0.11 0.08 0.09 0.08 0.05 0.06 0.04 0.09 0.10 0.06 0.09 0.11 0.22 0.39 0.35 0.38 0.24 1.04 0.48 0.39 0.22 0.09 0.05 0.03 0.04 0.04 0.02 0.01 0.01 0.01 0.15 0.11 0.05 0.04 0.05 0.07 0.04 0.11 0.07 0.28
0.03 0.12 0.14 0.13 0.19 0.15 0.13 0.07 0.05 0.05 0.14 0.24 0.10 0.32 0.80 0.53 0.09 0.11 0.42 0.46 0.47 0.35 0.35 0.35 0.24 0.24 0.10 0.08 0.02 0.01 0.02 0.09 0.06 0.03 0.04 0.03 0.04 0.04 0.06 0.12 0.50 0.66
0.02 0.02 0.01 0.03 0.14 0.13 0.15 0.19 0.04 0.04 0.04 0.07 0.10 0.13 0.21 0.14 0.26 0.22 0.17 0.12 0.11 0.44 0.45 0.86 0.89 0.32 0.22 0.16 0.19 0.17 0.19 0.21 0.08 0.08 0.06 0.14 0.08 0.07 0.21 0.35 0.36 0.43
0.00 0.00 0.01 0.07 0.08 0.02 0.04 0.05 0.04 0.04 0.04 0.05 0.05 0.08 0.06 0.09 0.13 0.06 0.09 0.36 0.20 0.07 0.16 0.48 0.99 0.34 0.23 0.13 0.09 0.07 0.07 0.11 0.08 0.05 0.06 0.08 0.11 0.40 0.68 0.74 0.96 0.31
0.00 0.00 0.00 0.00 0.00 0.00 0.01 0.02 0.03 0.03 0.02 0.02 0.03 0.05 0.04 0.11 0.04 0.10 0.13 0.34 0.29 0.33 0.50 0.55 0.39 0.31 0.11 0.08 0.11 0.05 0.06 0.06 0.20 0.13 0.13 0.09 0.36 0.92 0.39 0.14 0.25 0.18
0.00 0.00 0.00 0.00 0.00 0.00 0.00 0.01 0.01 0.02 0.03 0.03 0.02 0.03 0.03 0.07 0.03 0.08 0.09 0.14 0.13 0.18 0.19 0.96 0.97 0.25 0.19 0.11 0.04 0.12 0.30 0.21 0.16 0.20 0.26 0.29 1.01 0.48 0.34 0.20 0.12 0.05
0.00 0.00 0.00 0.00 0.00 0.00 0.00 0.00 0.00 0.01 0.01 0.02 0.02 0.02 0.02 0.03 0.07 0.05 0.04 0.08 0.05 0.15 0.15 0.25 0.10 0.11 0.01 0.01 0.00 0.00 0.12 0.05 0.02 0.12 0.22 0.40 0.27 0.11 0.14 0.15 0.13 0.05
0.00 0.00 0.00 0.00 0.00 0.00 0.00 0.00 0.00 0.00 0.00 0.00 0.01 0.02 0.02 0.02 0.03 0.03 0.03 0.05 0.13 0.08 0.15 0.37 0.62 0.47 0.02 0.00 0.00 0.00 0.02 0.04 0.03 0.04 0.13 0.07 0.04 0.13 0.09 0.14 0.42 0.02
0.00 0.00 0.00 0.00 0.00 0.00 0.00 0.00 0.00 0.00 0.00 0.00 0.00 0.00 0.01 0.03 0.02 0.02 0.03 0.04 0.06 0.14 0.11 0.09 0.09 0.02 0.00 0.00 0.00 0.00 0.04 0.23 0.14 0.06 0.05 0.16 0.22 0.10 0.03 0.01 0.03 0.04
0.01 0.00 0.00 0.00 0.00 0.00 0.01 0.00 0.00 0.00 0.00 0.00 0.00 0.00 0.02 0.03 0.02 0.02 0.03 0.03 0.05 0.03 0.03 0.07 0.12 0.04 0.00 0.00 0.00 0.00 0.00 0.11 0.06 0.03 0.31 0.06 0.14 0.04 0.02 0.04 0.04 0.02

ECMWFNIL_prec_precacc_036.txt.gz
Total_Precipitation_Accumulation
0.04 0.02 0.00 0.00 0.00 0.01 0.03 0.01 0.01 0.00 0.00 0.00 0.00 0.00 0.00 0.00 0.00 0.00 0.00 0.00 0.00 0.00 0.00 0.00 0.00 0.00 0.00 0.00 0.00 0.00 0.00 0.00 0.00 0.00 0.01 0.02 0.03 0.01 0.01 0.01 0.00 0.00
0.04 0.03 0.02 0.01 0.01 0.00 0.00 0.00 0.00 0.00 0.00 0.00 0.00 0.00 0.00 0.00 0.00 0.00 0.00 0.00 0.00 0.00 0.00 0.00 0.00 0.00 0.00 0.00 0.00 0.00 0.00 0.00 0.00 0.00 0.00 0.00 0.00 0.00 0.00 0.00 0.00 0.00
0.04 0.03 0.02 0.03 0.03 0.00 0.01 0.02 0.00 0.00 0.00 0.00 0.00 0.00 0.00 0.00 0.00 0.00 0.00 0.00 0.00 0.00 0.00 0.00 0.00 0.00 0.00 0.00 0.00 0.00 0.00 0.00 0.00 0.00 0.00 0.00 0.00 0.00 0.00 0.00 0.00 0.00
0.15 0.09 0.03 0.03 0.00 0.02 0.04 0.00 0.02 0.02 0.00 0.00 0.00 0.00 0.00 0.00 0.00 0.00 0.00 0.00 0.00 0.00 0.00 0.00 0.00 0.00 0.00 0.00 0.00 0.00 0.00 0.00 0.00 0.00 0.00 0.00 0.00 0.00 0.00 0.00 0.00 0.00
0.29 0.13 0.05 0.05 0.04 0.04 0.04 0.05 0.04 0.01 0.00 0.00 0.00 0.00 0.00 0.00 0.00 0.00 0.00 0.00 0.00 0.00 0.00 0.00 0.00 0.00 0.00 0.00 0.00 0.00 0.00 0.00 0.00 0.00 0.00 0.00 0.00 0.00 0.00 0.00 0.00 0.00
0.21 0.16 0.10 0.07 0.02 0.04 0.06 0.01 0.00 0.00 0.00 0.00 0.00 0.00 0.00 0.00 0.00 0.00 0.00 0.00 0.00 0.00 0.00 0.00 0.00 0.00 0.00 0.00 0.00 0.00 0.00 0.00 0.00 0.00 0.00 0.00 0.00 0.00 0.00 0.00 0.00 0.00
0.11 0.08 0.07 0.03 0.04 0.04 0.01 0.03 0.03 0.00 0.00 0.00 0.00 0.00 0.00 0.00 0.00 0.00 0.00 0.00 0.00 0.00 0.00 0.00 0.00 0.00 0.00 0.00 0.00 0.00 0.00 0.00 0.00 0.00 0.00 0.00 0.00 0.00 0.00 0.00 0.00 0.00
0.05 0.03 0.05 0.03 0.01 0.06 0.04 0.08 0.02 0.00 0.01 0.00 0.00 0.00 0.01 0.00 0.00 0.00 0.00 0.00 0.00 0.00 0.00 0.00 0.00 0.00 0.00 0.00 0.00 0.00 0.00 0.00 0.00 0.00 0.00 0.00 0.00 0.00 0.00 0.00 0.00 0.00
0.21 0.10 0.03 0.07 0.01 0.02 0.07 0.11 0.04 0.15 0.04 0.01 0.01 0.01 0.01 0.00 0.01 0.01 0.01 0.00 0.00 0.00 0.00 0.00 0.00 0.00 0.00 0.00 0.00 0.00 0.00 0.00 0.00 0.00 0.00 0.00 0.00 0.00 0.00 0.00 0.00 0.00
0.55 0.40 0.30 0.07 0.05 0.05 0.08 0.01 0.01 0.04 0.06 0.15 0.04 0.09 0.01 0.01 0.01 0.00 0.00 0.00 0.00 0.00 0.00 0.00 0.00 0.00 0.00 0.00 0.00 0.00 0.00 0.00 0.00 0.00 0.00 0.00 0.00 0.00 0.00 0.00 0.00 0.00
0.64 0.77 0.56 0.32 0.23 0.29 0.10 0.03 0.02 0.10 0.28 0.29 0.10 0.13 0.14 0.10 0.01 0.00 0.00 0.00 0.01 0.01 0.00 0.00 0.00 0.00 0.00 0.00 0.00 0.00 0.00 0.00 0.00 0.00 0.00 0.00 0.00 0.00 0.00 0.00 0.00 0.00
0.78 0.82 0.53 0.41 0.60 0.46 0.41 0.59 0.42 0.32 0.27 0.16 0.07 0.17 0.13 0.09 0.07 0.12 0.05 0.11 0.18 0.01 0.03 0.04 0.02 0.00 0.00 0.00 0.00 0.00 0.00 0.00 0.00 0.00 0.01 0.01 0.01 0.00 0.00 0.00 0.00 0.00
0.59 0.78 0.82 1.27 1.24 1.15 0.90 0.65 0.71 0.77 0.72 0.54 0.31 0.25 0.36 0.52 0.47 0.37 0.32 0.19 0.09 0.02 0.02 0.01 0.06 0.08 0.03 0.02 0.02 0.04 0.02 0.02 0.02 0.02 0.01 0.00 0.01 0.01 0.01 0.00 0.01 0.01
0.74 0.96 0.89 0.82 0.90 0.95 0.97 0.90 1.02 0.86 0.78 0.70 0.75 0.51 0.56 0.51 0.50 0.45 0.39 0.21 0.19 0.19 0.20 0.14 0.10 0.17 0.17 0.14 0.12 0.15 0.07 0.05 0.05 0.03 0.04 0.04 0.04 0.03 0.06 0.26 0.29 0.05
0.86 0.79 0.51 0.41 0.38 0.57 0.99 1.08 0.80 0.61 0.55 0.56 0.46 0.38 0.41 0.38 0.41 0.47 0.21 0.18 0.16 0.14 0.14 0.26 0.14 0.18 0.12 0.25 0.20 0.19 0.12 0.12 0.15 0.12 0.09 0.06 0.05 0.02 0.02 0.05 0.05 0.10
0.37 0.36 0.66 0.47 0.67 0.60 0.37 0.59 0.42 0.49 0.33 0.35 0.36 0.39 0.32 0.30 0.23 0.24 0.27 0.33 0.24 0.17 0.58 0.40 0.66 0.23 0.22 0.10 0.09 0.12 0.14 0.13 0.06 0.08 0.07 0.04 0.04 0.04 0.07 0.07 0.04 0.03
0.15 0.28 0.27 0.15 0.30 0.25 0.23 0.41 0.29 0.32 0.17 0.06 0.09 0.12 0.22 0.39 0.35 0.38 0.24 1.04 0.48 0.39 0.22 0.09 0.05 0.03 0.04 0.04 0.02 0.01 0.01 0.01 0.15 0.11 0.05 0.04 0.05 0.07 0.04 0.11 0.07 0.28
0.04 0.25 0.25 0.36 0.42 0.24 0.24 0.28 0.17 0.31 0.36 0.34 0.10 0.32 0.80 0.53 0.09 0.11 0.42 0.46 0.47 0.35 0.35 0.35 0.24 0.24 0.10 0.08 0.02 0.01 0.02 0.09 0.06 0.03 0.04 0.03 0.04 0.04 0.06 0.12 0.50 0.66
0.04 0.04 0.02 0.04 0.14 0.13 0.17 0.35 0.36 0.16 0.24 0.39 0.24 0.13 0.22 0.14 0.26 0.22 0.17 0.12 0.11 0.44 0.45 0.86 0.89 0.32 0.22 0.16 0.19 0.17 0.19 0.21 0.08 0.08 0.06 0.14 0.08 0.07 0.21 0.35 0.36 0.43
0.00 0.00 0.01 0.08 0.09 0.02 0.04 0.06 0.04 0.07 0.12 0.25 0.22 0.14 0.07 0.12 0.13 0.06 0.09 0.36 0.20 0.07 0.16 0.48 0.99 0.34 0.23 0.13 0.09 0.07 0.07 0.11 0.08 0.05 0.06 0.08 0.11 0.40 0.68 0.74 0.96 0.31
0.00 0.00 0.00 0.00 0.00 0.00 0.01 0.02 0.04 0.07 0.02 0.02 0.05 0.09 0.07 0.15 0.08 0.12 0.13 0.34 0.29 0.33 0.50 0.55 0.39 0.31 0.11 0.08 0.11 0.05 0.06 0.06 0.20 0.13 0.13 0.09 0.36 0.92 0.39 0.14 0.25 0.18
0.00 0.00 0.00 0.01 0.00 0.00 0.00 0.01 0.01 0.02 0.03 0.04 0.03 0.03 0.05 0.09 0.08 0.13 0.10 0.15 0.15 0.18 0.19 0.96 0.97 0.25 0.19 0.11 0.04 0.12 0.30 0.21 0.16 0.20 0.26 0.29 1.03 0.48 0.34 0.20 0.12 0.05
0.00 0.00 0.00 0.00 0.00 0.00 0.00 0.00 0.00 0.01 0.01 0.02 0.02 0.02 0.02 0.03 0.07 0.05 0.04 0.08 0.05 0.15 0.15 0.25 0.10 0.11 0.01 0.01 0.00 0.00 0.12 0.05 0.03 0.13 0.22 0.40 0.27 0.11 0.64 0.81 0.17 0.27
0.00 0.00 0.00 0.00 0.00 0.00 0.00 0.00 0.00 0.00 0.00 0.00 0.01 0.02 0.02 0.02 0.03 0.03 0.03 0.05 0.13 0.08 0.15 0.37 0.62 0.47 0.02 0.00 0.00 0.00 0.03 0.04 0.03 0.04 0.13 0.07 0.04 0.13 0.09 0.14 0.43 0.04
0.00 0.00 0.00 0.00 0.00 0.00 0.00 0.00 0.00 0.00 0.00 0.00 0.00 0.00 0.01 0.03 0.02 0.02 0.03 0.04 0.06 0.14 0.11 0.09 0.09 0.02 0.00 0.00 0.00 0.00 0.04 0.23 0.14 0.06 0.05 0.16 0.22 0.10 0.03 0.01 0.03 0.04
0.01 0.00 0.00 0.00 0.00 0.00 0.01 0.00 0.00 0.00 0.00 0.00 0.00 0.00 0.02 0.03 0.02 0.02 0.03 0.03 0.05 0.03 0.03 0.07 0.12 0.04 0.00 0.00 0.00 0.00 0.00 0.11 0.06 0.03 0.31 0.06 0.14 0.04 0.02 0.04 0.04 0.02

ECMWFNIL_prec_precacc_042.txt.gz
Total_Precipitation_Accumulation
0.04 0.02 0.00 0.00 0.00 0.01 0.03 0.01 0.01 0.00 0.00 0.00 0.00 0.00 0.00 0.00 0.00 0.00 0.00 0.00 0.00 0.00 0.00 0.00 0.00 0.00 0.00 0.00 0.00 0.00 0.00 0.00 0.00 0.00 0.01 0.02 0.03 0.01 0.01 0.01 0.00 0.00
0.04 0.03 0.02 0.01 0.01 0.00 0.00 0.00 0.00 0.00 0.00 0.00 0.00 0.00 0.00 0.00 0.00 0.00 0.00 0.00 0.00 0.00 0.00 0.00 0.00 0.00 0.00 0.00 0.00 0.00 0.00 0.00 0.00 0.00 0.00 0.00 0.00 0.00 0.00 0.00 0.00 0.00
0.04 0.03 0.02 0.03 0.03 0.00 0.01 0.02 0.00 0.00 0.00 0.00 0.00 0.00 0.00 0.00 0.00 0.00 0.00 0.00 0.00 0.00 0.00 0.00 0.00 0.00 0.00 0.00 0.00 0.00 0.00 0.00 0.00 0.00 0.00 0.00 0.00 0.00 0.00 0.00 0.00 0.00
0.15 0.09 0.03 0.03 0.00 0.02 0.04 0.00 0.02 0.02 0.00 0.00 0.00 0.00 0.00 0.00 0.00 0.00 0.00 0.00 0.00 0.00 0.00 0.00 0.00 0.00 0.00 0.00 0.00 0.00 0.00 0.00 0.00 0.00 0.00 0.00 0.00 0.00 0.00 0.00 0.00 0.00
0.29 0.13 0.05 0.05 0.04 0.04 0.04 0.05 0.04 0.01 0.00 0.00 0.00 0.00 0.00 0.00 0.00 0.00 0.00 0.00 0.00 0.00 0.00 0.00 0.00 0.00 0.00 0.00 0.00 0.00 0.00 0.00 0.00 0.00 0.00 0.00 0.00 0.00 0.00 0.00 0.00 0.00
0.21 0.16 0.10 0.07 0.02 0.04 0.06 0.01 0.00 0.00 0.00 0.00 0.00 0.00 0.00 0.00 0.00 0.00 0.00 0.00 0.00 0.00 0.00 0.00 0.00 0.00 0.00 0.00 0.00 0.00 0.00 0.00 0.00 0.00 0.00 0.00 0.00 0.00 0.00 0.00 0.00 0.00
0.13 0.10 0.07 0.03 0.04 0.04 0.01 0.03 0.03 0.00 0.00 0.00 0.00 0.00 0.00 0.00 0.00 0.00 0.00 0.00 0.00 0.00 0.00 0.00 0.00 0.00 0.00 0.00 0.00 0.00 0.00 0.00 0.00 0.00 0.00 0.00 0.00 0.00 0.00 0.00 0.00 0.00
0.48 0.31 0.32 0.03 0.01 0.06 0.04 0.08 0.02 0.00 0.01 0.00 0.00 0.00 0.01 0.00 0.00 0.00 0.00 0.00 0.00 0.00 0.00 0.00 0.00 0.00 0.00 0.00 0.00 0.00 0.00 0.00 0.00 0.00 0.00 0.00 0.00 0.00 0.00 0.00 0.00 0.00
0.48 0.40 0.25 0.08 0.01 0.02 0.07 0.11 0.04 0.15 0.04 0.01 0.01 0.01 0.01 0.00 0.01 0.01 0.01 0.00 0.00 0.00 0.00 0.00 0.00 0.00 0.00 0.00 0.00 0.00 0.00 0.00 0.00 0.00 0.00 0.00 0.00 0.00 0.00 0.00 0.00 0.00
0.55 0.41 0.32 0.12 0.07 0.06 0.08 0.01 0.01 0.04 0.06 0.15 0.04 0.09 0.01 0.01 0.01 0.00 0.00 0.00 0.00 0.00 0.00 0.00 0.00 0.00 0.00 0.00 0.00 0.00 0.00 0.00 0.00 0.00 0.00 0.00 0.00 0.00 0.00 0.00 0.00 0.00
0.64 0.79 0.60 0.35 0.27 0.46 0.22 0.03 0.02 0.10 0.28 0.29 0.10 0.13 0.14 0.10 0.01 0.00 0.00 0.00 0.01 0.01 0.00 0.00 0.00 0.00 0.00 0.00 0.00 0.00 0.00 0.00 0.00 0.00 0.00 0.00 0.00 0.00 0.00 0.00 0.00 0.00
1.13 0.85 0.57 0.43 0.63 0.50 0.44 0.61 0.43 0.32 0.27 0.16 0.07 0.17 0.13 0.09 0.07 0.12 0.05 0.11 0.18 0.01 0.03 0.04 0.02 0.00 0.00 0.00 0.00 0.00 0.00 0.00 0.00 0.00 0.01 0.01 0.01 0.00 0.00 0.00 0.00 0.00
0.86 0.86 0.95 1.31 1.29 1.26 1.17 0.68 0.71 0.77 0.72 0.54 0.31 0.25 0.36 0.52 0.47 0.37 0.32 0.19 0.09 0.02 0.02 0.01 0.06 0.08 0.03 0.02 0.02 0.04 0.02 0.02 0.02 0.02 0.01 0.00 0.01 0.01 0.01 0.00 0.01 0.01
1.01 1.18 1.08 1.06 1.15 1.24 1.36 1.01 1.03 0.86 0.78 0.70 0.75 0.51 0.56 0.51 0.50 0.45 0.39 0.21 0.19 0.19 0.20 0.14 0.10 0.17 0.17 0.14 0.12 0.15 0.07 0.05 0.05 0.03 0.04 0.04 0.04 0.03 0.06 0.26 0.29 0.05
1.03 1.06 0.69 0.60 0.71 1.10 1.25 1.31 1.03 0.76 0.63 0.58 0.46 0.38 0.41 0.38 0.41 0.47 0.21 0.18 0.16 0.14 0.14 0.26 0.14 0.18 0.12 0.25 0.20 0.19 0.12 0.12 0.15 0.12 0.09 0.06 0.05 0.02 0.02 0.05 0.05 0.10
0.62 0.53 0.82 0.69 1.27 0.78 0.44 0.61 0.51 0.56 0.36 0.35 0.37 0.39 0.32 0.30 0.23 0.24 0.27 0.33 0.24 0.17 0.58 0.40 0.66 0.23 0.22 0.10 0.09 0.12 0.14 0.13 0.06 0.08 0.07 0.04 0.04 0.04 0.07 0.07 0.04 0.03
0.50 1.35 0.98 1.24 1.04 0.36 0.56 0.79 0.33 0.33 0.18 0.07 0.09 0.12 0.22 0.39 0.35 0.38 0.24 1.04 0.48 0.39 0.22 0.09 0.05 0.03 0.04 0.04 0.02 0.01 0.01 0.01 0.15 0.11 0.05 0.04 0.05 0.07 0.04 0.11 0.07 0.28
0.39 0.29 0.33 0.63 0.47 0.32 0.30 0.69 0.48 0.36 0.38 0.37 0.21 0.34 0.80 0.53 0.09 0.11 0.42 0.46 0.47 0.35 0.35 0.35 0.24 0.24 0.10 0.08 0.02 0.01 0.02 0.09 0.06 0.03 0.04 0.03 0.04 0.04 0.06 0.12 0.50 0.66
0.20 0.14 0.05 0.22 0.21 0.16 0.18 0.36 0.38 0.18 0.27 0.45 0.48 0.34 0.24 0.15 0.26 0.22 0.17 0.12 0.11 0.44 0.45 0.86 0.89 0.32 0.23 0.16 0.19 0.17 0.19 0.21 0.08 0.08 0.06 0.14 0.08 0.07 0.21 0.35 0.36 0.43
0.00 0.07 0.23 0.10 0.09 0.02 0.05 0.07 0.05 0.09 0.25 0.33 0.27 0.20 0.26 0.36 0.18 0.06 0.09 0.36 0.20 0.07 0.16 0.48 0.99 0.34 0.23 0.14 0.09 0.07 0.07 0.11 0.08 0.05 0.06 0.08 0.11 0.40 0.68 0.74 0.96 0.31
0.00 0.00 0.00 0.00 0.00 0.00 0.01 0.02 0.04 0.07 0.02 0.05 0.05 0.10 0.21 0.26 0.09 0.12 0.13 0.34 0.29 0.33 0.50 0.55 0.39 0.31 0.11 0.09 0.12 0.05 0.06 0.06 0.20 0.13 0.13 0.09 0.36 0.92 0.39 0.14 0.25 0.18
0.00 0.00 0.00 0.01 0.00 0.00 0.00 0.01 0.01 0.02 0.03 0.04 0.03 0.03 0.05 0.10 0.09 0.15 0.14 0.15 0.15 0.18 0.19 0.96 0.97 0.25 0.19 0.11 0.04 0.13 0.30 0.21 0.16 0.20 0.26 0.29 1.03 0.48 0.34 0.20 0.12 0.05
0.00 0.00 0.00 0.00 0.00 0.00 0.00 0.00 0.00 0.01 0.01 0.02 0.02 0.02 0.02 0.03 0.07 0.05 0.04 0.08 0.05 0.15 0.15 0.25 0.10 0.11 0.01 0.01 0.00 0.01 0.13 0.05 0.03 0.13 0.22 0.40 0.27 0.11 0.64 0.81 0.17 0.27
0.00 0.00 0.00 0.00 0.00 0.00 0.00 0.00 0.00 0.00 0.00 0.00 0.01 0.02 0.02 0.02 0.03 0.03 0.03 0.05 0.13 0.08 0.15 0.37 0.62 0.47 0.02 0.00 0.00 0.00 0.08 0.05 0.27 0.15 0.16 0.08 0.08 0.13 0.09 0.14 0.43 0.04
0.00 0.00 0.00 0.00 0.00 0.00 0.00 0.00 0.01 0.01 0.00 0.00 0.00 0.00 0.01 0.03 0.02 0.02 0.03 0.04 0.06 0.14 0.11 0.09 0.09 0.02 0.00 0.00 0.00 0.00 0.04 0.23 0.14 0.06 0.05 0.16 0.22 0.10 0.03 0.01 0.04 0.05
0.08 0.01 0.00 0.00 0.00 0.00 0.03 0.00 0.00 0.00 0.00 0.00 0.00 0.00 0.02 0.03 0.02 0.02 0.03 0.03 0.05 0.03 0.03 0.07 0.12 0.04 0.00 0.00 0.00 0.00 0.00 0.11 0.06 0.03 0.31 0.06 0.14 0.04 0.02 0.04 0.04 0.02

ECMWFNIL_prec_precacc_045.txt.gz
Total_Precipitation_Accumulation
0.04 0.02 0.00 0.00 0.00 0.01 0.03 0.01 0.01 0.00 0.00 0.00 0.00 0.00 0.00 0.00 0.00 0.00 0.00 0.00 0.00 0.00 0.00 0.00 0.00 0.00 0.00 0.00 0.00 0.00 0.00 0.00 0.00 0.00 0.01 0.03 0.03 0.01 0.01 0.01 0.00 0.00
0.04 0.03 0.02 0.01 0.01 0.00 0.00 0.00 0.00 0.00 0.00 0.00 0.00 0.00 0.00 0.00 0.00 0.00 0.00 0.00 0.00 0.00 0.00 0.00 0.00 0.00 0.00 0.00 0.00 0.00 0.00 0.00 0.00 0.00 0.00 0.00 0.00 0.00 0.00 0.00 0.00 0.00
0.04 0.03 0.02 0.03 0.03 0.00 0.01 0.02 0.00 0.00 0.00 0.00 0.00 0.00 0.00 0.00 0.00 0.00 0.00 0.00 0.00 0.00 0.00 0.00 0.00 0.00 0.00 0.00 0.00 0.00 0.00 0.00 0.00 0.00 0.00 0.00 0.00 0.00 0.00 0.00 0.00 0.00
0.15 0.09 0.03 0.03 0.00 0.02 0.04 0.00 0.02 0.02 0.00 0.00 0.00 0.00 0.00 0.00 0.00 0.00 0.00 0.00 0.00 0.00 0.00 0.00 0.00 0.00 0.00 0.00 0.00 0.00 0.00 0.00 0.00 0.00 0.00 0.00 0.00 0.00 0.00 0.00 0.00 0.00
0.29 0.13 0.05 0.05 0.04 0.04 0.04 0.05 0.04 0.01 0.00 0.00 0.00 0.00 0.00 0.00 0.00 0.00 0.00 0.00 0.00 0.00 0.00 0.00 0.00 0.00 0.00 0.00 0.00 0.00 0.00 0.00 0.00 0.00 0.00 0.00 0.00 0.00 0.00 0.00 0.00 0.00
0.21 0.16 0.10 0.07 0.03 0.04 0.06 0.01 0.00 0.00 0.00 0.00 0.00 0.00 0.00 0.00 0.00 0.00 0.00 0.00 0.00 0.00 0.00 0.00 0.00 0.00 0.00 0.00 0.00 0.00 0.00 0.00 0.00 0.00 0.00 0.00 0.00 0.00 0.00 0.00 0.00 0.00
0.13 0.10 0.07 0.03 0.04 0.04 0.01 0.03 0.03 0.00 0.00 0.00 0.00 0.00 0.00 0.00 0.00 0.00 0.00 0.00 0.00 0.00 0.00 0.00 0.00 0.00 0.00 0.00 0.00 0.00 0.00 0.00 0.00 0.00 0.00 0.00 0.00 0.00 0.00 0.00 0.00 0.00
0.48 0.31 0.32 0.03 0.01 0.06 0.04 0.08 0.02 0.00 0.01 0.00 0.00 0.00 0.01 0.00 0.00 0.00 0.00 0.00 0.00 0.00 0.00 0.00 0.00 0.00 0.00 0.00 0.00 0.00 0.00 0.00 0.00 0.00 0.00 0.00 0.00 0.00 0.00 0.00 0.00 0.00
0.48 0.40 0.25 0.08 0.01 0.02 0.07 0.11 0.04 0.15 0.04 0.01 0.01 0.01 0.01 0.00 0.01 0.01 0.01 0.00 0.00 0.00 0.00 0.00 0.00 0.00 0.00 0.00 0.00 0.00 0.00 0.00 0.00 0.00 0.00 0.00 0.00 0.00 0.00 0.00 0.00 0.00
0.55 0.41 0.32 0.12 0.07 0.06 0.08 0.01 0.01 0.04 0.06 0.15 0.04 0.09 0.01 0.01 0.01 0.00 0.00 0.00 0.00 0.00 0.00 0.00 0.00 0.00 0.00 0.00 0.00 0.00 0.00 0.00 0.00 0.00 0.00 0.00 0.00 0.00 0.00 0.00 0.00 0.00
0.64 0.79 0.60 0.36 0.27 0.46 0.22 0.03 0.02 0.10 0.28 0.29 0.10 0.13 0.14 0.10 0.01 0.00 0.00 0.00 0.01 0.01 0.00 0.00 0.00 0.00 0.00 0.00 0.00 0.00 0.00 0.00 0.00 0.00 0.00 0.00 0.00 0.00 0.00 0.00 0.00 0.00
1.13 0.86 0.69 0.59 0.65 0.50 0.44 0.61 0.43 0.32 0.27 0.16 0.07 0.17 0.13 0.09 0.07 0.12 0.05 0.11 0.18 0.01 0.03 0.04 0.02 0.00 0.00 0.00 0.00 0.00 0.00 0.00 0.00 0.00 0.01 0.01 0.01 0.00 0.00 0.00 0.00 0.00
0.86 1.72 1.65 1.80 1.36 1.26 1.17 0.68 0.71 0.77 0.72 0.54 0.31 0.25 0.36 0.52 0.47 0.37 0.32 0.19 0.09 0.02 0.02 0.01 0.06 0.08 0.03 0.02 0.02 0.04 0.02 0.02 0.02 0.02 0.01 0.00 0.01 0.01 0.01 0.00 0.01 0.01
1.10 1.36 1.11 1.08 1.17 1.24 1.36 1.01 1.03 0.86 0.78 0.70 0.75 0.51 0.56 0.51 0.50 0.45 0.39 0.21 0.19 0.19 0.20 0.14 0.10 0.17 0.17 0.14 0.12 0.15 0.07 0.05 0.05 0.03 0.04 0.04 0.04 0.03 0.06 0.26 0.29 0.05
1.05 1.06 0.70 0.68 0.88 1.25 1.33 1.32 1.04 0.79 0.65 0.59 0.48 0.39 0.41 0.38 0.41 0.47 0.21 0.18 0.16 0.14 0.14 0.26 0.14 0.18 0.12 0.25 0.20 0.19 0.12 0.12 0.15 0.12 0.09 0.06 0.05 0.02 0.02 0.05 0.05 0.10
0.65 0.56 0.91 0.77 1.30 0.82 0.57 0.75 0.77 0.72 0.49 0.41 0.48 0.48 0.33 0.30 0.23 0.24 0.27 0.33 0.24 0.17 0.58 0.40 0.66 0.23 0.22 0.10 0.09 0.12 0.14 0.13 0.06 0.08 0.07 0.04 0.04 0.04 0.07 0.07 0.04 0.03
0.76 1.45 1.18 1.61 1.20 0.50 0.67 0.92 0.45 0.45 0.32 0.09 0.10 0.12 0.22 0.39 0.35 0.38 0.24 1.04 0.48 0.39 0.22 0.09 0.05 0.03 0.04 0.04 0.02 0.01 0.01 0.01 0.15 0.11 0.05 0.04 0.05 0.07 0.04 0.11 0.07 0.28
0.57 0.35 0.70 0.82 0.67 0.51 0.40 0.86 0.61 0.41 0.39 0.37 0.21 0.34 0.80 0.53 0.09 0.11 0.42 0.46 0.47 0.35 0.35 0.35 0.24 0.24 0.10 0.08 0.02 0.01 0.02 0.09 0.06 0.03 0.04 0.03 0.04 0.04 0.06 0.12 0.50 0.66
0.22 0.16 0.07 0.22 0.21 0.16 0.18 0.36 0.38 0.18 0.27 0.45 0.48 0.34 0.24 0.15 0.26 0.22 0.17 0.12 0.11 0.44 0.45 0.86 0.89 0.32 0.23 0.16 0.19 0.18 0.19 0.21 0.08 0.08 0.06 0.14 0.08 0.07 0.21 0.35 0.36 0.43
0.00 0.07 0.23 0.10 0.09 0.02 0.07 0.11 0.06 0.09 0.25 0.33 0.27 0.22 0.27 0.36 0.18 0.06 0.09 0.36 0.20 0.07 0.16 0.48 0.99 0.34 0.23 0.14 0.09 0.07 0.08 0.11 0.08 0.05 0.06 0.08 0.11 0.40 0.68 0.74 0.96 0.31
0.00 0.00 0.00 0.00 0.00 0.00 0.02 0.08 0.17 0.13 0.02 0.05 0.05 0.10 0.21 0.26 0.09 0.12 0.13 0.34 0.29 0.33 0.50 0.55 0.39 0.31 0.11 0.09 0.12 0.05 0.07 0.06 0.20 0.13 0.13 0.09 0.36 0.92 0.39 0.14 0.25 0.18
0.00 0.00 0.00 0.01 0.00 0.00 0.00 0.01 0.01 0.03 0.04 0.04 0.03 0.03 0.08 0.13 0.09 0.15 0.14 0.15 0.15 0.18 0.19 0.96 0.97 0.25 0.19 0.11 0.04 0.13 0.30 0.21 0.16 0.20 0.26 0.29 1.03 0.48 0.34 0.20 0.12 0.05
0.00 0.00 0.00 0.00 0.00 0.00 0.00 0.00 0.00 0.01 0.01 0.02 0.02 0.02 0.02 0.04 0.07 0.05 0.04 0.08 0.05 0.15 0.15 0.25 0.10 0.11 0.01 0.01 0.00 0.01 0.13 0.05 0.03 0.13 0.22 0.40 0.27 0.11 0.64 0.81 0.17 0.27
0.00 0.00 0.00 0.00 0.00 0.00 0.00 0.00 0.00 0.00 0.00 0.00 0.01 0.02 0.02 0.02 0.03 0.03 0.03 0.05 0.13 0.08 0.15 0.37 0.62 0.47 0.02 0.00 0.00 0.00 0.08 0.05 0.27 0.15 0.16 0.08 0.08 0.13 0.09 0.14 0.43 0.04
0.00 0.00 0.01 0.00 0.00 0.00 0.00 0.00 0.01 0.01 0.00 0.00 0.00 0.00 0.01 0.03 0.02 0.02 0.03 0.04 0.06 0.14 0.11 0.09 0.09 0.02 0.00 0.00 0.00 0.00 0.04 0.23 0.14 0.06 0.05 0.16 0.22 0.10 0.03 0.01 0.04 0.05
0.08 0.01 0.00 0.01 0.02 0.00 0.03 0.04 0.02 0.01 0.00 0.00 0.00 0.00 0.02 0.03 0.02 0.02 0.03 0.03 0.05 0.03 0.03 0.07 0.12 0.04 0.00 0.00 0.00 0.00 0.00 0.11 0.06 0.03 0.31 0.06 0.14 0.04 0.02 0.04 0.04 0.02

ECMWFNIL_prec_precacc_048.txt.gz
Total_Precipitation_Accumulation
0.04 0.02 0.00 0.00 0.00 0.01 0.03 0.01 0.01 0.00 0.00 0.00 0.00 0.00 0.00 0.00 0.00 0.00 0.00 0.00 0.00 0.01 0.01 0.01 0.01 0.00 0.00 0.00 0.01 0.02 0.02 0.01 0.01 0.01 0.01 0.03 0.04 0.02 0.02 0.01 0.01 0.02
0.04 0.03 0.02 0.01 0.01 0.00 0.00 0.00 0.00 0.00 0.00 0.00 0.00 0.00 0.00 0.00 0.00 0.00 0.00 0.00 0.00 0.00 0.00 0.00 0.00 0.00 0.00 0.00 0.01 0.03 0.01 0.00 0.00 0.00 0.00 0.01 0.01 0.01 0.01 0.01 0.01 0.01
0.04 0.03 0.02 0.03 0.03 0.00 0.01 0.02 0.00 0.00 0.00 0.00 0.00 0.00 0.00 0.00 0.00 0.00 0.00 0.00 0.00 0.00 0.00 0.00 0.00 0.00 0.00 0.00 0.01 0.03 0.02 0.01 0.01 0.00 0.00 0.01 0.01 0.01 0.01 0.00 0.00 0.01
0.15 0.09 0.03 0.03 0.00 0.02 0.04 0.00 0.02 0.02 0.00 0.00 0.00 0.00 0.00 0.00 0.00 0.00 0.00 0.00 0.00 0.00 0.00 0.00 0.00 0.00 0.00 0.00 0.00 0.01 0.02 0.01 0.01 0.01 0.01 0.01 0.01 0.01 0.01 0.01 0.00 0.00
0.29 0.13 0.05 0.05 0.04 0.04 0.04 0.05 0.04 0.01 0.00 0.00 0.00 0.00 0.00 0.00 0.00 0.00 0.00 0.00 0.00 0.00 0.00 0.00 0.00 0.00 0.00 0.00 0.00 0.01 0.01 0.02 0.01 0.01 0.02 0.01 0.01 0.01 0.01 0.01 0.00 0.00
0.21 0.16 0.10 0.07 0.03 0.04 0.06 0.01 0.00 0.01 0.00 0.00 0.00 0.00 0.00 0.00 0.00 0.00 0.00 0.00 0.00 0.00 0.00 0.00 0.00 0.00 0.00 0.00 0.00 0.01 0.01 0.02 0.01 0.01 0.04 0.02 0.02 0.01 0.01 0.01 0.00 0.01
0.13 0.10 0.07 0.03 0.04 0.04 0.01 0.03 0.03 0.00 0.00 0.00 0.00 0.00 0.00 0.00 0.00 0.00 0.00 0.00 0.00 0.00 0.00 0.00 0.00 0.00 0.00 0.00 0.00 0.00 0.00 0.00 0.00 0.00 0.00 0.00 0.01 0.00 0.00 0.01 0.01 0.01
0.48 0.31 0.32 0.03 0.01 0.06 0.04 0.08 0.02 0.00 0.02 0.00 0.00 0.00 0.01 0.00 0.00 0.00 0.00 0.00 0.00 0.00 0.00 0.00 0.00 0.00 0.00 0.00 0.00 0.00 0.00 0.00 0.00 0.00 0.00 0.00 0.00 0.00 0.00 0.01 0.00 0.00
0.48 0.40 0.26 0.08 0.01 0.02 0.07 0.11 0.04 0.15 0.04 0.01 0.01 0.01 0.01 0.00 0.01 0.01 0.01 0.00 0.00 0.00 0.00 0.00 0.00 0.00 0.00 0.00 0.00 0.00 0.00 0.00 0.00 0.00 0.00 0.00 0.00 0.00 0.00 0.00 0.00 0.00
0.55 0.41 0.32 0.12 0.07 0.06 0.08 0.01 0.01 0.04 0.06 0.15 0.04 0.09 0.01 0.01 0.01 0.00 0.00 0.00 0.00 0.00 0.00 0.00 0.00 0.00 0.00 0.00 0.00 0.00 0.00 0.00 0.00 0.00 0.00 0.00 0.00 0.00 0.00 0.00 0.01 0.00
0.65 0.79 0.60 0.48 0.50 0.46 0.23 0.03 0.02 0.10 0.28 0.29 0.10 0.13 0.14 0.10 0.01 0.00 0.00 0.00 0.01 0.01 0.00 0.00 0.00 0.00 0.00 0.00 0.00 0.00 0.00 0.00 0.00 0.00 0.00 0.00 0.00 0.00 0.00 0.00 0.00 0.01
1.13 0.86 1.03 0.89 0.72 0.50 0.44 0.61 0.43 0.33 0.27 0.16 0.07 0.17 0.13 0.09 0.07 0.12 0.05 0.11 0.18 0.01 0.03 0.04 0.02 0.00 0.00 0.00 0.00 0.00 0.00 0.00 0.00 0.00 0.01 0.01 0.01 0.00 0.00 0.00 0.00 0.01
0.92 1.72 1.66 1.80 1.36 1.26 1.17 0.68 0.71 0.77 0.72 0.54 0.31 0.25 0.36 0.52 0.47 0.37 0.32 0.19 0.09 0.02 0.02 0.01 0.06 0.08 0.03 0.02 0.02 0.04 0.02 0.02 0.02 0.02 0.01 0.00 0.01 0.01 0.01 0.00 0.01 0.01
1.30 1.46 1.11 1.08 1.17 1.25 1.36 1.01 1.03 0.86 0.78 0.70 0.75 0.51 0.56 0.51 0.50 0.45 0.39 0.21 0.19 0.19 0.20 0.14 0.10 0.17 0.17 0.14 0.12 0.15 0.07 0.05 0.05 0.03 0.04 0.04 0.04 0.03 0.06 0.26 0.29 0.05
1.05 1.07 0.70 0.69 0.89 1.27 1.33 1.32 1.04 0.79 0.65 0.59 0.48 0.39 0.41 0.38 0.41 0.47 0.21 0.18 0.16 0.14 0.14 0.26 0.14 0.18 0.12 0.25 0.20 0.19 0.12 0.12 0.15 0.12 0.09 0.06 0.05 0.02 0.02 0.05 0.05 0.10
0.67 0.58 0.91 0.77 1.33 0.83 0.57 0.75 0.77 0.72 0.49 0.41 0.48 0.48 0.33 0.30 0.23 0.24 0.27 0.33 0.24 0.17 0.58 0.40 0.66 0.23 0.22 0.10 0.09 0.12 0.14 0.13 0.06 0.08 0.07 0.04 0.04 0.04 0.07 0.07 0.04 0.03
0.94 1.55 1.18 1.62 1.20 0.52 0.68 0.95 0.46 0.46 0.36 0.11 0.13 0.13 0.22 0.40 0.36 0.38 0.24 1.04 0.48 0.39 0.22 0.09 0.05 0.03 0.04 0.04 0.02 0.01 0.01 0.01 0.15 0.11 0.05 0.04 0.05 0.07 0.04 0.11 0.07 0.28
0.83 0.50 0.73 0.87 0.71 0.55 0.45 0.91 0.66 0.48 0.45 0.42 0.22 0.35 0.81 0.53 0.09 0.11 0.42 0.46 0.47 0.35 0.35 0.35 0.24 0.24 0.10 0.08 0.02 0.01 0.02 0.09 0.06 0.03 0.04 0.03 0.04 0.04 0.06 0.12 0.50 0.66
0.63 0.46 0.36 0.56 0.41 0.38 0.32 0.54 0.62 0.31 0.51 0.58 0.55 0.36 0.25 0.15 0.26 0.22 0.17 0.12 0.11 0.44 0.45 0.86 0.89 0.32 0.23 0.16 0.19 0.18 0.19 0.21 0.08 0.08 0.06 0.14 0.08 0.07 0.21 0.35 0.36 0.43
0.10 0.20 0.35 0.30 0.26 0.15 0.20 0.23 0.24 0.20 0.31 0.39 0.30 0.22 0.27 0.36 0.18 0.06 0.09 0.36 0.20 0.07 0.16 0.48 0.99 0.34 0.23 0.14 0.09 0.07 0.08 0.11 0.08 0.05 0.06 0.08 0.11 0.40 0.68 0.74 0.96 0.31
0.02 0.04 0.08 0.06 0.01 0.01 0.03 0.08 0.20 0.13 0.03 0.05 0.05 0.10 0.21 0.26 0.09 0.12 0.13 0.34 0.29 0.33 0.50 0.55 0.39 0.31 0.11 0.09 0.12 0.05 0.07 0.06 0.20 0.13 0.13 0.09 0.36 0.92 0.39 0.14 0.25 0.18
0.00 0.00 0.00 0.04 0.01 0.01 0.01 0.01 0.03 0.06 0.10 0.06 0.04 0.04 0.08 0.14 0.10 0.15 0.14 0.15 0.15 0.18 0.19 0.96 0.97 0.25 0.19 0.11 0.04 0.13 0.30 0.21 0.16 0.20 0.26 0.29 1.03 0.48 0.34 0.20 0.12 0.05
0.00 0.00 0.00 0.00 0.00 0.01 0.02 0.00 0.00 0.09 0.02 0.02 0.02 0.03 0.03 0.04 0.08 0.05 0.04 0.08 0.05 0.15 0.15 0.25 0.10 0.11 0.01 0.01 0.00 0.01 0.13 0.05 0.03 0.13 0.22 0.40 0.27 0.11 0.64 0.81 0.17 0.28
0.00 0.00 0.00 0.00 0.00 0.00 0.00 0.00 0.00 0.01 0.01 0.01 0.03 0.02 0.05 0.04 0.10 0.08 0.06 0.08 0.15 0.15 0.15 0.38 0.62 0.47 0.02 0.00 0.00 0.00 0.08 0.05 0.27 0.15 0.16 0.08 0.08 0.13 0.09 0.14 0.43 0.04
0.00 0.00 0.01 0.00 0.00 0.00 0.00 0.00 0.01 0.01 0.00 0.00 0.00 0.00 0.01 0.03 0.02 0.02 0.03 0.04 0.06 0.14 0.11 0.09 0.09 0.02 0.00 0.00 0.00 0.00 0.04 0.23 0.14 0.06 0.05 0.16 0.22 0.10 0.03 0.01 0.04 0.05
0.08 0.01 0.00 0.01 0.02 0.00 0.03 0.04 0.03 0.06 0.00 0.00 0.00 0.00 0.02 0.03 0.02 0.02 0.03 0.03 0.05 0.03 0.03 0.07 0.12 0.04 0.00 0.00 0.00 0.00 0.00 0.11 0.06 0.03 0.31 0.06 0.14 0.04 0.02 0.04 0.04 0.02